| time (UTC) | temp C | wind direction | speed KPH | gust KPH | rain 1hr cm | rain 24hr cm | rain mn cm | humidity % | barometer mb |
| 20260508062217 | 20 | 35 | 3.2 | 6.4 | 0.00 | 0.10 | 0.00 | 78 | 1014.1 |
| 20260508062124 | 20 | 35 | 3.2 | 8.0 | 0.00 | 0.10 | 0.00 | 78 | 1014.1 |
| 20260508062020 | 20 | 35 | 3.2 | 8.0 | 0.00 | 0.10 | 0.00 | 78 | 1014.2 |
| 20260508061933 | 20 | 35 | 1.6 | 8.0 | 0.00 | 0.10 | 0.00 | 78 | 1014.2 |
| 20260508061841 | 20 | 35 | 1.6 | 8.0 | 0.00 | 0.10 | 0.00 | 78 | 1014.2 |
| 20260508061715 | 20 | 35 | 1.6 | 9.7 | 0.00 | 0.10 | 0.00 | 78 | 1014.3 |
| 20260508061627 | 20 | 35 | 3.2 | 9.7 | 0.00 | 0.10 | 0.00 | 78 | 1014.2 |
| 20260508061533 | 20 | 35 | 3.2 | 9.7 | 0.00 | 0.10 | 0.00 | 78 | 1014.3 |
| 20260508061440 | 20 | 35 | 4.8 | 9.7 | 0.00 | 0.10 | 0.00 | 78 | 1014.2 |
| 20260508061326 | 20 | 35 | 3.2 | 9.7 | 0.00 | 0.10 | 0.00 | 78 | 1014.3 |
| 20260508061238 | 20 | 35 | 3.2 | 9.7 | 0.00 | 0.10 | 0.00 | 78 | 1014.3 |
| 20260508061133 | 20 | 34 | 3.2 | 9.7 | 0.00 | 0.10 | 0.00 | 78 | 1014.4 |
| 20260508061036 | 20 | 34 | 3.2 | 9.7 | 0.00 | 0.10 | 0.00 | 78 | 1014.4 |
| 20260508060927 | 20 | 34 | 4.8 | 9.7 | 0.00 | 0.10 | 0.00 | 78 | 1014.5 |
| 20260508060815 | 20 | 34 | 3.2 | 9.7 | 0.00 | 0.10 | 0.00 | 79 | 1014.5 |
| 20260508060714 | 20 | 360 | 1.6 | 9.7 | 0.00 | 0.10 | 0.00 | 79 | 1014.6 |
| 20260508060624 | 20 | 360 | 1.6 | 9.7 | 0.00 | 0.10 | 0.00 | 79 | 1014.6 |
| 20260508060518 | 20 | 360 | 1.6 | 9.7 | 0.00 | 0.10 | 0.00 | 79 | 1014.6 |
| 20260508060452 | 20 | 360 | 1.6 | 9.7 | 0.00 | 0.10 | 0.00 | 79 | 1014.5 |
| 20260508060321 | 20 | 360 | 3.2 | 9.7 | 0.00 | 0.10 | 0.00 | 78 | 1014.4 |
| 20260508060217 | 20 | 360 | 4.8 | 9.7 | 0.00 | 0.10 | 0.00 | 79 | 1014.4 |
| 20260508060129 | 20 | 360 | 4.8 | 9.7 | 0.00 | 0.10 | 0.00 | 79 | 1014.4 |
| 20260508060022 | 20 | 360 | 1.6 | 4.8 | 0.00 | 0.10 | 0.00 | 79 | 1014.4 |
| 20260508055934 | 20 | 360 | 1.6 | 4.8 | 0.00 | 0.10 | 0.00 | 79 | 1014.4 |
| 20260508055819 | 20 | 360 | 0.0 | 6.4 | 0.00 | 0.10 | 0.00 | 79 | 1014.4 |
| 20260508055720 | 20 | 360 | 0.0 | 8.0 | 0.00 | 0.10 | 0.00 | 79 | 1014.3 |
| 20260508055631 | 20 | 360 | 0.0 | 8.0 | 0.00 | 0.10 | 0.00 | 79 | 1014.4 |
| 20260508055526 | 20 | 360 | 0.0 | 8.0 | 0.00 | 0.10 | 0.00 | 79 | 1014.3 |
| 20260508055418 | 20 | 360 | 0.0 | 8.0 | 0.00 | 0.10 | 0.00 | 79 | 1014.3 |
| 20260508055325 | 20 | 360 | 1.6 | 8.0 | 0.00 | 0.10 | 0.00 | 79 | 1014.3 |
| 20260508055218 | 20 | 360 | 3.2 | 8.0 | 0.00 | 0.10 | 0.00 | 79 | 1014.4 |
| 20260508055139 | 20 | 360 | 3.2 | 8.0 | 0.00 | 0.10 | 0.00 | 79 | 1014.3 |
| 20260508055015 | 20 | 360 | 3.2 | 8.0 | 0.00 | 0.10 | 0.00 | 79 | 1014.2 |
| 20260508054921 | 20 | 360 | 4.8 | 8.0 | 0.00 | 0.10 | 0.00 | 79 | 1014.2 |
| 20260508054835 | 20 | 360 | 4.8 | 8.0 | 0.00 | 0.10 | 0.00 | 79 | 1014.2 |
| 20260508054742 | 20 | 360 | 3.2 | 8.0 | 0.00 | 0.10 | 0.00 | 79 | 1014.1 |
| 20260508054650 | 20 | 26 | 1.6 | 6.4 | 0.00 | 0.10 | 0.00 | 79 | 1014.2 |
| 20260508054545 | 20 | 26 | 1.6 | 6.4 | 0.00 | 0.10 | 0.00 | 79 | 1014.3 |
| 20260508054436 | 20 | 26 | 1.6 | 6.4 | 0.00 | 0.10 | 0.00 | 79 | 1014.3 |
| 20260508054324 | 20 | 26 | 1.6 | 6.4 | 0.00 | 0.10 | 0.00 | 79 | 1014.4 |
| 20260508054220 | 20 | 26 | 3.2 | 6.4 | 0.00 | 0.10 | 0.00 | 79 | 1014.4 |
| 20260508054152 | 20 | 26 | 1.6 | 6.4 | 0.00 | 0.10 | 0.00 | 79 | 1014.5 |
| 20260508054028 | 20 | 26 | 1.6 | 6.4 | 0.00 | 0.10 | 0.00 | 79 | 1014.5 |
| 20260508053920 | 20 | 26 | 3.2 | 8.0 | 0.00 | 0.10 | 0.00 | 79 | 1014.5 |
| 20260508053826 | 20 | 26 | 3.2 | 8.0 | 0.00 | 0.10 | 0.00 | 79 | 1014.5 |
| 20260508053741 | 20 | 26 | 3.2 | 8.0 | 0.00 | 0.10 | 0.00 | 79 | 1014.5 |
| 20260508053642 | 20 | 26 | 1.6 | 8.0 | 0.00 | 0.10 | 0.00 | 79 | 1014.5 |
| 20260508053518 | 20 | 26 | 0.0 | 8.0 | 0.00 | 0.10 | 0.00 | 79 | 1014.4 |
| 20260508053428 | 20 | 26 | 1.6 | 8.0 | 0.00 | 0.10 | 0.00 | 79 | 1014.3 |
| 20260508053336 | 20 | 26 | 3.2 | 8.0 | 0.00 | 0.10 | 0.00 | 79 | 1014.3 |
| 20260508053219 | 20 | 24 | 3.2 | 8.0 | 0.00 | 0.10 | 0.00 | 79 | 1014.2 |
| 20260508053143 | 20 | 25 | 4.8 | 8.0 | 0.00 | 0.10 | 0.00 | 79 | 1014.1 |
| 20260508053018 | 20 | 42 | 1.6 | 8.0 | 0.00 | 0.10 | 0.00 | 79 | 1014.1 |
| 20260508052930 | 20 | 42 | 0.0 | 8.0 | 0.00 | 0.10 | 0.00 | 79 | 1014.0 |
| 20260508052821 | 20 | 42 | 1.6 | 8.0 | 0.00 | 0.10 | 0.00 | 79 | 1014.0 |
| 20260508052718 | 20 | 42 | 1.6 | 8.0 | 0.00 | 0.10 | 0.00 | 79 | 1014.0 |
| 20260508052652 | 20 | 42 | 1.6 | 8.0 | 0.00 | 0.10 | 0.00 | 79 | 1014.1 |
| 20260508052526 | 20 | 46 | 3.2 | 8.0 | 0.00 | 0.10 | 0.00 | 79 | 1014.1 |
| 20260508052412 | 20 | 46 | 3.2 | 8.0 | 0.00 | 0.10 | 0.00 | 79 | 1014.1 |
| 20260508052326 | 20 | 46 | 3.2 | 8.0 | 0.00 | 0.10 | 0.00 | 79 | 1014.1 |
| 20260508052218 | 20 | 62 | 3.2 | 8.0 | 0.00 | 0.10 | 0.00 | 79 | 1014.1 |
| 20260508052133 | 20 | 17 | 1.6 | 8.0 | 0.00 | 0.10 | 0.00 | 79 | 1014.0 |
| 20260508052035 | 20 | 17 | 0.0 | 6.4 | 0.00 | 0.10 | 0.00 | 79 | 1014.0 |
| 20260508051922 | 20 | 17 | 1.6 | 6.4 | 0.00 | 0.10 | 0.00 | 79 | 1014.0 |
| 20260508051829 | 20 | 17 | 1.6 | 6.4 | 0.00 | 0.10 | 0.00 | 79 | 1014.1 |
| 20260508051720 | 20 | 17 | 1.6 | 6.4 | 0.00 | 0.10 | 0.00 | 79 | 1014.0 |
| 20260508051702 | 20 | 17 | 1.6 | 8.0 | 0.00 | 0.10 | 0.00 | 79 | 1014.0 |
| 20260508051417 | 20 | 17 | 3.2 | 8.0 | 0.00 | 0.10 | 0.00 | 79 | 1014.1 |
| 20260508051323 | 20 | 17 | 3.2 | 8.0 | 0.00 | 0.10 | 0.00 | 79 | 1014.1 |
| 20260508051219 | 20 | 17 | 3.2 | 8.0 | 0.00 | 0.10 | 0.00 | 79 | 1014.2 |
| 20260508051134 | 20 | 17 | 3.2 | 8.0 | 0.00 | 0.10 | 0.00 | 79 | 1014.3 |
| 20260508051027 | 20 | 17 | 3.2 | 8.0 | 0.00 | 0.10 | 0.00 | 79 | 1014.4 |
| 20260508050942 | 20 | 17 | 3.2 | 8.0 | 0.00 | 0.10 | 0.00 | 79 | 1014.4 |
| 20260508050829 | 20 | 17 | 3.2 | 8.0 | 0.00 | 0.10 | 0.10 | 79 | 1014.5 |
| 20260508050736 | 20 | 17 | 3.2 | 8.0 | 0.00 | 0.10 | 0.10 | 79 | 1014.4 |
| 20260508050638 | 20 | 15 | 3.2 | 8.0 | 0.00 | 0.10 | 0.10 | 79 | 1014.4 |
| 20260508050517 | 20 | 18 | 3.2 | 8.0 | 0.00 | 0.10 | 0.10 | 79 | 1014.4 |
| 20260508050432 | 20 | 18 | 3.2 | 8.0 | 0.00 | 0.10 | 0.10 | 79 | 1014.4 |
| 20260508050337 | 20 | 18 | 3.2 | 8.0 | 0.00 | 0.10 | 0.10 | 79 | 1014.3 |
| 20260508050224 | 20 | 16 | 3.2 | 6.4 | 0.00 | 0.10 | 0.10 | 80 | 1014.3 |
| 20260508050208 | 20 | 16 | 3.2 | 6.4 | 0.00 | 0.10 | 0.10 | 79 | 1014.3 |
| 20260508050021 | 20 | 40 | 1.6 | 4.8 | 0.00 | 0.10 | 0.10 | 80 | 1014.2 |
| 20260508045934 | 20 | 40 | 1.6 | 4.8 | 0.00 | 0.10 | 0.10 | 80 | 1014.2 |
| 20260508045822 | 20 | 40 | 1.6 | 4.8 | 0.00 | 0.10 | 0.10 | 80 | 1014.2 |
| 20260508045719 | 20 | 40 | 0.0 | 4.8 | 0.00 | 0.10 | 0.10 | 80 | 1014.2 |
| 20260508045626 | 20 | 40 | 0.0 | 4.8 | 0.00 | 0.10 | 0.10 | 80 | 1014.2 |
| 20260508045547 | 20 | 40 | 0.0 | 4.8 | 0.00 | 0.10 | 0.10 | 80 | 1014.2 |
| 20260508045412 | 20 | 40 | 0.0 | 4.8 | 0.00 | 0.10 | 0.10 | 80 | 1014.1 |
| 20260508045329 | 20 | 40 | 1.6 | 4.8 | 0.00 | 0.10 | 0.10 | 80 | 1014.1 |
| 20260508045215 | 20 | 40 | 1.6 | 4.8 | 0.00 | 0.10 | 0.10 | 80 | 1014.0 |
| 20260508045132 | 20 | 40 | 1.6 | 6.4 | 0.00 | 0.10 | 0.10 | 80 | 1014.0 |
| 20260508045034 | 20 | 40 | 1.6 | 6.4 | 0.00 | 0.10 | 0.10 | 79 | 1014.0 |
| 20260508044922 | 20 | 39 | 1.6 | 6.4 | 0.00 | 0.10 | 0.10 | 80 | 1014.0 |
| 20260508044811 | 20 | 39 | 0.0 | 6.4 | 0.00 | 0.10 | 0.10 | 80 | 1014.0 |
| 20260508044719 | 20 | 40 | 0.0 | 8.0 | 0.00 | 0.10 | 0.10 | 80 | 1014.0 |
| 20260508044623 | 20 | 40 | 1.6 | 9.7 | 0.00 | 0.10 | 0.10 | 80 | 1013.9 |
| 20260508044517 | 20 | 40 | 1.6 | 9.7 | 0.00 | 0.10 | 0.10 | 80 | 1013.9 |
| 20260508044423 | 20 | 38 | 1.6 | 9.7 | 0.00 | 0.10 | 0.10 | 80 | 1014.0 |
| 20260508044337 | 20 | 38 | 1.6 | 9.7 | 0.00 | 0.10 | 0.10 | 80 | 1014.0 |
| 20260508044228 | 20 | 38 | 1.6 | 9.7 | 0.00 | 0.10 | 0.10 | 80 | 1014.1 |
| 20260508044146 | 20 | 38 | 1.6 | 9.7 | 0.00 | 0.10 | 0.10 | 80 | 1014.2 |
| 20260508044047 | 20 | 38 | 1.6 | 9.7 | 0.00 | 0.10 | 0.10 | 80 | 1014.1 |
| 20260508043959 | 20 | 38 | 3.2 | 9.7 | 0.00 | 0.10 | 0.10 | 80 | 1014.1 |
| 20260508043826 | 20 | 38 | 4.8 | 9.7 | 0.00 | 0.10 | 0.10 | 80 | 1014.1 |
| 20260508043723 | 20 | 12 | 4.8 | 9.7 | 0.00 | 0.10 | 0.10 | 80 | 1014.1 |
| 20260508043657 | 20 | 24 | 3.2 | 8.0 | 0.00 | 0.10 | 0.10 | 80 | 1014.1 |
| 20260508043514 | 20 | 24 | 1.6 | 8.0 | 0.00 | 0.10 | 0.10 | 80 | 1014.2 |
| 20260508043422 | 20 | 23 | 1.6 | 8.0 | 0.00 | 0.10 | 0.10 | 80 | 1014.2 |
| 20260508043334 | 20 | 23 | 3.2 | 8.0 | 0.00 | 0.10 | 0.10 | 80 | 1014.3 |
| 20260508043222 | 20 | 23 | 3.2 | 8.0 | 0.00 | 0.10 | 0.10 | 80 | 1014.4 |
| 20260508043139 | 20 | 23 | 3.2 | 8.0 | 0.00 | 0.10 | 0.10 | 80 | 1014.3 |
| 20260508043018 | 20 | 23 | 3.2 | 8.0 | 0.00 | 0.10 | 0.10 | 80 | 1014.3 |
| 20260508042931 | 20 | 22 | 1.6 | 8.0 | 0.00 | 0.10 | 0.10 | 80 | 1014.3 |
| 20260508042819 | 20 | 22 | 0.0 | 8.0 | 0.00 | 0.10 | 0.10 | 80 | 1014.4 |
| 20260508042713 | 20 | 22 | 0.0 | 8.0 | 0.00 | 0.10 | 0.10 | 80 | 1014.3 |
| 20260508042646 | 20 | 22 | 0.0 | 8.0 | 0.00 | 0.10 | 0.10 | 80 | 1014.3 |
| 20260508042527 | 20 | 22 | 1.6 | 8.0 | 0.00 | 0.10 | 0.10 | 80 | 1014.3 |
| 20260508042413 | 20 | 22 | 1.6 | 8.0 | 0.00 | 0.10 | 0.10 | 80 | 1014.3 |
| 20260508042321 | 20 | 22 | 3.2 | 8.0 | 0.00 | 0.10 | 0.10 | 80 | 1014.3 |
| 20260508042219 | 20 | 22 | 3.2 | 6.4 | 0.00 | 0.10 | 0.10 | 80 | 1014.3 |
| 20260508042130 | 20 | 22 | 3.2 | 8.0 | 0.00 | 0.10 | 0.10 | 80 | 1014.4 |
| 20260508042026 | 20 | 22 | 3.2 | 8.0 | 0.00 | 0.10 | 0.10 | 80 | 1014.4 |
| 20260508041943 | 20 | 21 | 3.2 | 8.0 | 0.00 | 0.10 | 0.10 | 80 | 1014.5 |
| 20260508041830 | 20 | 21 | 1.6 | 8.0 | 0.00 | 0.10 | 0.10 | 80 | 1014.5 |
| 20260508041718 | 20 | 21 | 1.6 | 8.0 | 0.00 | 0.10 | 0.10 | 80 | 1014.5 |
| 20260508041640 | 20 | 21 | 1.6 | 8.0 | 0.00 | 0.10 | 0.10 | 80 | 1014.6 |
| 20260508041513 | 20 | 21 | 1.6 | 9.7 | 0.00 | 0.10 | 0.10 | 80 | 1014.6 |
| 20260508041426 | 20 | 19 | 0.0 | 9.7 | 0.00 | 0.10 | 0.10 | 80 | 1014.6 |
| 20260508041317 | 20 | 19 | 1.6 | 9.7 | 0.00 | 0.10 | 0.10 | 80 | 1014.7 |
| 20260508041241 | 20 | 19 | 1.6 | 9.7 | 0.00 | 0.10 | 0.10 | 80 | 1014.7 |
| 20260508041126 | 20 | 26 | 1.6 | 9.7 | 0.00 | 0.10 | 0.10 | 80 | 1014.7 |
| 20260508041028 | 20 | 26 | 3.2 | 9.7 | 0.00 | 0.10 | 0.10 | 80 | 1014.7 |
| 20260508040913 | 20 | 26 | 1.6 | 9.7 | 0.00 | 0.10 | 0.10 | 80 | 1014.7 |
| 20260508040820 | 20 | 25 | 3.2 | 9.7 | 0.00 | 0.10 | 0.10 | 79 | 1014.7 |
| 20260508040721 | 20 | 25 | 3.2 | 9.7 | 0.00 | 0.10 | 0.10 | 79 | 1014.6 |
| 20260508040654 | 20 | 20 | 1.6 | 6.4 | 0.00 | 0.10 | 0.10 | 79 | 1014.6 |
| 20260508040536 | 20 | 20 | 1.6 | 6.4 | 0.00 | 0.10 | 0.10 | 79 | 1014.7 |
| 20260508040423 | 20 | 20 | 3.2 | 6.4 | 0.00 | 0.10 | 0.10 | 79 | 1014.7 |
| 20260508040331 | 20 | 20 | 3.2 | 6.4 | 0.00 | 0.10 | 0.10 | 79 | 1014.7 |
| 20260508040212 | 20 | 20 | 3.2 | 6.4 | 0.00 | 0.10 | 0.10 | 79 | 1014.7 |
| 20260508040146 | 20 | 20 | 3.2 | 6.4 | 0.00 | 0.10 | 0.10 | 79 | 1014.7 |
| 20260508040022 | 20 | 20 | 1.6 | 6.4 | 0.00 | 0.10 | 0.10 | 79 | 1014.8 |
| 20260508035928 | 20 | 19 | 1.6 | 6.4 | 0.00 | 0.10 | 0.10 | 79 | 1014.8 |
| 20260508035815 | 20 | 19 | 1.6 | 6.4 | 0.00 | 0.10 | 0.10 | 79 | 1014.9 |
| 20260508035717 | 20 | 19 | 3.2 | 6.4 | 0.00 | 0.10 | 0.10 | 79 | 1014.9 |
| 20260508035649 | 20 | 19 | 3.2 | 6.4 | 0.00 | 0.10 | 0.10 | 79 | 1015.0 |
| 20260508035551 | 20 | 19 | 4.8 | 6.4 | 0.00 | 0.10 | 0.10 | 79 | 1014.9 |
| 20260508035418 | 20 | 19 | 3.2 | 6.4 | 0.00 | 0.10 | 0.10 | 79 | 1014.8 |
| 20260508035325 | 20 | 18 | 1.6 | 6.4 | 0.00 | 0.10 | 0.10 | 79 | 1014.8 |
| 20260508035221 | 20 | 18 | 1.6 | 6.4 | 0.00 | 0.10 | 0.10 | 79 | 1014.8 |
| 20260508035133 | 20 | 18 | 1.6 | 9.7 | 0.00 | 0.10 | 0.10 | 79 | 1014.8 |
| 20260508035039 | 20 | 18 | 1.6 | 11.3 | 0.00 | 0.10 | 0.10 | 79 | 1014.8 |
| 20260508034926 | 20 | 18 | 1.6 | 14.5 | 0.00 | 0.10 | 0.10 | 79 | 1014.8 |
| 20260508034812 | 20 | 18 | 0.0 | 14.5 | 0.00 | 0.10 | 0.10 | 79 | 1014.8 |
| 20260508034718 | 20 | 18 | 1.6 | 14.5 | 0.00 | 0.10 | 0.10 | 79 | 1014.8 |
| 20260508034642 | 20 | 18 | 1.6 | 14.5 | 0.00 | 0.10 | 0.10 | 79 | 1014.7 |
| 20260508034524 | 20 | 18 | 3.2 | 14.5 | 0.00 | 0.10 | 0.10 | 79 | 1014.7 |
| 20260508034451 | 20 | 18 | 4.8 | 14.5 | 0.00 | 0.10 | 0.10 | 79 | 1014.7 |
| 20260508034318 | 20 | 18 | 4.8 | 14.5 | 0.00 | 0.10 | 0.10 | 79 | 1014.6 |
| 20260508034220 | 20 | 42 | 4.8 | 14.5 | 0.00 | 0.10 | 0.10 | 79 | 1014.7 |
| 20260508034146 | 20 | 46 | 6.4 | 14.5 | 0.00 | 0.10 | 0.10 | 79 | 1014.7 |
| 20260508034026 | 20 | 5 | 6.4 | 14.5 | 0.00 | 0.10 | 0.10 | 79 | 1014.6 |
| 20260508033919 | 20 | 24 | 3.2 | 12.9 | 0.00 | 0.10 | 0.10 | 79 | 1014.6 |
| 20260508033826 | 20 | 45 | 1.6 | 12.9 | 0.00 | 0.10 | 0.10 | 79 | 1014.6 |
| 20260508033712 | 20 | 346 | 1.6 | 12.9 | 0.00 | 0.10 | 0.10 | 79 | 1014.7 |
| 20260508033636 | 20 | 346 | 3.2 | 12.9 | 0.00 | 0.10 | 0.10 | 79 | 1014.7 |
| 20260508033511 | 20 | 346 | 6.4 | 12.9 | 0.00 | 0.10 | 0.10 | 79 | 1014.7 |
| 20260508033423 | 20 | 52 | 6.4 | 12.9 | 0.00 | 0.10 | 0.10 | 79 | 1014.7 |
| 20260508033337 | 20 | 66 | 4.8 | 12.9 | 0.00 | 0.10 | 0.10 | 79 | 1014.8 |
| 20260508033235 | 20 | 5 | 3.2 | 12.9 | 0.00 | 0.10 | 0.10 | 79 | 1014.7 |
| 20260508033127 | 20 | 5 | 3.2 | 12.9 | 0.00 | 0.10 | 0.10 | 79 | 1014.7 |
| 20260508033022 | 20 | 13 | 4.8 | 12.9 | 0.00 | 0.10 | 0.10 | 79 | 1014.6 |
| 20260508032928 | 20 | 12 | 4.8 | 12.9 | 0.00 | 0.10 | 0.10 | 79 | 1014.6 |
| 20260508032820 | 20 | 360 | 4.8 | 8.0 | 0.00 | 0.10 | 0.10 | 79 | 1014.6 |
| 20260508032722 | 20 | 360 | 4.8 | 8.0 | 0.00 | 0.10 | 0.10 | 79 | 1014.6 |
| 20260508032628 | 20 | 57 | 4.8 | 8.0 | 0.00 | 0.10 | 0.10 | 79 | 1014.6 |
| 20260508032530 | 20 | 61 | 3.2 | 8.0 | 0.00 | 0.10 | 0.10 | 79 | 1014.5 |
| 20260508032418 | 20 | 13 | 1.6 | 8.0 | 0.00 | 0.10 | 0.10 | 79 | 1014.6 |
| 20260508032344 | 20 | 13 | 1.6 | 8.0 | 0.00 | 0.10 | 0.10 | 79 | 1014.5 |
| 20260508032214 | 20 | 13 | 3.2 | 8.0 | 0.00 | 0.10 | 0.10 | 79 | 1014.5 |
| 20260508032139 | 20 | 13 | 3.2 | 8.0 | 0.00 | 0.10 | 0.10 | 79 | 1014.5 |
| 20260508032013 | 20 | 13 | 1.6 | 8.0 | 0.00 | 0.10 | 0.10 | 79 | 1014.6 |
| 20260508031919 | 20 | 13 | 1.6 | 8.0 | 0.00 | 0.10 | 0.10 | 79 | 1014.6 |
| 20260508031833 | 20 | 13 | 1.6 | 8.0 | 0.00 | 0.10 | 0.10 | 79 | 1014.6 |
| 20260508031713 | 20 | 13 | 3.2 | 8.0 | 0.00 | 0.10 | 0.10 | 79 | 1014.7 |
| 20260508031641 | 20 | 11 | 3.2 | 8.0 | 0.00 | 0.10 | 0.10 | 79 | 1014.7 |
| 20260508031515 | 20 | 11 | 3.2 | 8.0 | 0.00 | 0.10 | 0.10 | 79 | 1014.8 |
| 20260508031429 | 20 | 11 | 1.6 | 8.0 | 0.00 | 0.10 | 0.10 | 79 | 1014.8 |
| 20260508031315 | 20 | 11 | 3.2 | 8.0 | 0.00 | 0.10 | 0.10 | 79 | 1014.7 |
| 20260508031218 | 20 | 10 | 3.2 | 8.0 | 0.00 | 0.10 | 0.10 | 79 | 1014.7 |
| 20260508031130 | 20 | 10 | 3.2 | 8.0 | 0.00 | 0.10 | 0.10 | 78 | 1014.7 |
| 20260508031046 | 20 | 30 | 3.2 | 8.0 | 0.00 | 0.10 | 0.10 | 78 | 1014.7 |
| 20260508030938 | 20 | 30 | 4.8 | 8.0 | 0.00 | 0.10 | 0.10 | 78 | 1014.7 |
| 20260508030825 | 20 | 14 | 4.8 | 8.0 | 0.00 | 0.10 | 0.10 | 78 | 1014.7 |
| 20260508030711 | 20 | 30 | 3.2 | 8.0 | 0.00 | 0.10 | 0.10 | 78 | 1014.6 |
| 20260508030640 | 20 | 28 | 3.2 | 8.0 | 0.00 | 0.10 | 0.10 | 78 | 1014.6 |
| 20260508030514 | 20 | 19 | 1.6 | 8.0 | 0.00 | 0.10 | 0.10 | 78 | 1014.6 |
| 20260508030422 | 20 | 19 | 1.6 | 9.7 | 0.00 | 0.10 | 0.10 | 78 | 1014.6 |
| 20260508030329 | 20 | 19 | 3.2 | 9.7 | 0.00 | 0.10 | 0.10 | 78 | 1014.6 |
| 20260508030215 | 20 | 19 | 4.8 | 9.7 | 0.00 | 0.10 | 0.10 | 78 | 1014.7 |
| 20260508030143 | 20 | 19 | 4.8 | 9.7 | 0.00 | 0.10 | 0.10 | 78 | 1014.7 |
| 20260508030019 | 20 | 46 | 3.2 | 9.7 | 0.00 | 0.10 | 0.10 | 78 | 1014.7 |
| 20260508025951 | 20 | 46 | 1.6 | 9.7 | 0.00 | 0.10 | 0.10 | 78 | 1014.7 |
| 20260508025818 | 20 | 46 | 3.2 | 9.7 | 0.00 | 0.10 | 0.10 | 78 | 1014.7 |
| 20260508025714 | 20 | 46 | 4.8 | 9.7 | 0.00 | 0.10 | 0.10 | 78 | 1014.7 |
| 20260508025646 | 20 | 46 | 4.8 | 9.7 | 0.00 | 0.10 | 0.10 | 78 | 1014.7 |
| 20260508025528 | 20 | 44 | 4.8 | 9.7 | 0.00 | 0.10 | 0.10 | 78 | 1014.7 |
| 20260508025413 | 20 | 31 | 3.2 | 9.7 | 0.00 | 0.10 | 0.10 | 78 | 1014.7 |
| 20260508025320 | 20 | 31 | 3.2 | 9.7 | 0.00 | 0.10 | 0.10 | 78 | 1014.7 |
| 20260508025218 | 20 | 31 | 4.8 | 9.7 | 0.00 | 0.10 | 0.10 | 78 | 1014.7 |
| 20260508025130 | 20 | 30 | 4.8 | 9.7 | 0.00 | 0.10 | 0.10 | 78 | 1014.7 |
| 20260508025037 | 20 | 49 | 4.8 | 9.7 | 0.00 | 0.10 | 0.10 | 78 | 1014.8 |
| 20260508024924 | 20 | 22 | 4.8 | 9.7 | 0.00 | 0.10 | 0.10 | 78 | 1014.8 |
| 20260508024831 | 20 | 21 | 4.8 | 11.3 | 0.00 | 0.10 | 0.10 | 78 | 1014.8 |
| 20260508024718 | 20 | 34 | 4.8 | 9.7 | 0.00 | 0.10 | 0.10 | 78 | 1014.9 |
| 20260508024641 | 20 | 34 | 3.2 | 12.9 | 0.00 | 0.10 | 0.10 | 78 | 1014.9 |
| 20260508024522 | 20 | 5 | 3.2 | 12.9 | 0.00 | 0.10 | 0.10 | 78 | 1014.9 |
| 20260508024429 | 20 | 28 | 4.8 | 12.9 | 0.00 | 0.10 | 0.10 | 78 | 1014.8 |
| 20260508024334 | 20 | 28 | 6.4 | 12.9 | 0.00 | 0.10 | 0.10 | 78 | 1014.8 |
| 20260508024218 | 20 | 16 | 4.8 | 12.9 | 0.00 | 0.10 | 0.10 | 78 | 1014.8 |
| 20260508024124 | 20 | 5 | 3.2 | 12.9 | 0.00 | 0.10 | 0.10 | 78 | 1014.8 |
| 20260508024027 | 20 | 42 | 1.6 | 12.9 | 0.00 | 0.10 | 0.10 | 78 | 1014.8 |
| 20260508023918 | 20 | 42 | 4.8 | 12.9 | 0.00 | 0.10 | 0.10 | 78 | 1014.8 |
| 20260508023825 | 20 | 42 | 3.2 | 12.9 | 0.00 | 0.10 | 0.10 | 78 | 1014.7 |
| 20260508023721 | 20 | 44 | 1.6 | 8.0 | 0.00 | 0.10 | 0.10 | 78 | 1014.7 |
| 20260508023631 | 20 | 44 | 3.2 | 9.7 | 0.00 | 0.10 | 0.10 | 78 | 1014.7 |
| 20260508023529 | 20 | 44 | 3.2 | 9.7 | 0.00 | 0.10 | 0.10 | 78 | 1014.8 |
| 20260508023418 | 20 | 360 | 4.8 | 9.7 | 0.00 | 0.10 | 0.10 | 77 | 1014.7 |
| 20260508023331 | 20 | 13 | 4.8 | 9.7 | 0.00 | 0.10 | 0.10 | 77 | 1014.7 |
| 20260508023238 | 20 | 22 | 3.2 | 9.7 | 0.00 | 0.10 | 0.10 | 77 | 1014.6 |
| 20260508023201 | 20 | 22 | 3.2 | 9.7 | 0.00 | 0.10 | 0.10 | 77 | 1014.6 |
| 20260508023013 | 20 | 22 | 1.6 | 9.7 | 0.00 | 0.10 | 0.10 | 77 | 1014.5 |
| 20260508022920 | 20 | 21 | 3.2 | 9.7 | 0.00 | 0.10 | 0.10 | 77 | 1014.5 |
| 20260508022834 | 20 | 29 | 4.8 | 9.7 | 0.00 | 0.10 | 0.10 | 77 | 1014.4 |
| 20260508022714 | 20 | 17 | 3.2 | 12.9 | 0.00 | 0.10 | 0.10 | 77 | 1014.4 |
| 20260508022648 | 20 | 17 | 3.2 | 12.9 | 0.00 | 0.10 | 0.10 | 77 | 1014.4 |
| 20260508022523 | 20 | 16 | 1.6 | 12.9 | 0.00 | 0.10 | 0.10 | 77 | 1014.4 |
| 20260508022431 | 20 | 16 | 1.6 | 12.9 | 0.00 | 0.10 | 0.10 | 77 | 1014.3 |
| 20260508022318 | 20 | 15 | 3.2 | 12.9 | 0.00 | 0.10 | 0.10 | 77 | 1014.3 |
| 20260508022213 | 20 | 15 | 3.2 | 12.9 | 0.00 | 0.10 | 0.10 | 77 | 1014.3 |
| 20260508022131 | 20 | 28 | 3.2 | 12.9 | 0.00 | 0.10 | 0.10 | 77 | 1014.3 |
| 20260508022034 | 20 | 28 | 4.8 | 12.9 | 0.00 | 0.10 | 0.10 | 77 | 1014.4 |
| 20260508021921 | 21 | 27 | 4.8 | 12.9 | 0.00 | 0.10 | 0.10 | 77 | 1014.4 |
| 20260508021827 | 21 | 49 | 1.6 | 8.0 | 0.00 | 0.10 | 0.10 | 77 | 1014.4 |
| 20260508021712 | 21 | 50 | 3.2 | 8.0 | 0.00 | 0.10 | 0.10 | 77 | 1014.4 |
| 20260508021640 | 21 | 50 | 3.2 | 8.0 | 0.00 | 0.10 | 0.10 | 77 | 1014.4 |
| 20260508021514 | 21 | 50 | 4.8 | 8.0 | 0.00 | 0.10 | 0.10 | 77 | 1014.3 |
| 20260508021420 | 21 | 49 | 3.2 | 12.9 | 0.00 | 0.10 | 0.10 | 77 | 1014.3 |
| 20260508021335 | 21 | 40 | 3.2 | 12.9 | 0.00 | 0.10 | 0.10 | 77 | 1014.3 |
| 20260508021211 | 21 | 39 | 3.2 | 12.9 | 0.00 | 0.10 | 0.10 | 77 | 1014.3 |
| 20260508021145 | 21 | 38 | 3.2 | 12.9 | 0.00 | 0.10 | 0.10 | 77 | 1014.3 |
| 20260508021045 | 21 | 38 | 3.2 | 12.9 | 0.00 | 0.10 | 0.10 | 77 | 1014.4 |
| 20260508020937 | 21 | 348 | 1.6 | 12.9 | 0.00 | 0.10 | 0.10 | 77 | 1014.4 |
| 20260508020824 | 21 | 346 | 3.2 | 12.9 | 0.00 | 0.10 | 0.10 | 77 | 1014.4 |
| 20260508020741 | 21 | 32 | 3.2 | 12.9 | 0.00 | 0.10 | 0.10 | 77 | 1014.4 |
| 20260508020632 | 21 | 31 | 4.8 | 12.9 | 0.00 | 0.10 | 0.10 | 77 | 1014.4 |
| 20260508020525 | 21 | 32 | 4.8 | 12.9 | 0.00 | 0.10 | 0.10 | 77 | 1014.4 |
| 20260508020423 | 21 | 355 | 4.8 | 9.7 | 0.00 | 0.10 | 0.10 | 77 | 1014.4 |
| 20260508020351 | 21 | 30 | 4.8 | 9.7 | 0.00 | 0.10 | 0.10 | 77 | 1014.3 |
| 20260508020215 | 21 | 34 | 3.2 | 9.7 | 0.00 | 0.10 | 0.10 | 77 | 1014.3 |
| 20260508020140 | 21 | 34 | 3.2 | 9.7 | 0.00 | 0.10 | 0.10 | 77 | 1014.3 |
| 20260508020013 | 21 | 5 | 1.6 | 9.7 | 0.00 | 0.10 | 0.10 | 77 | 1014.2 |
| 20260508015922 | 21 | 5 | 3.2 | 9.7 | 0.00 | 0.10 | 0.10 | 77 | 1014.2 |
| 20260508015811 | 21 | 5 | 4.8 | 11.3 | 0.00 | 0.10 | 0.10 | 77 | 1014.2 |
| 20260508015725 | 21 | 13 | 3.2 | 6.4 | 0.00 | 0.10 | 0.10 | 77 | 1014.2 |
| 20260508015708 | 21 | 13 | 3.2 | 6.4 | 0.00 | 0.10 | 0.10 | 77 | 1014.2 |
| 20260508015542 | 21 | 11 | 3.2 | 16.1 | 0.00 | 0.10 | 0.10 | 77 | 1014.2 |
| 20260508015456 | 21 | 11 | 1.6 | 16.1 | 0.00 | 0.10 | 0.10 | 77 | 1014.2 |
| 20260508015322 | 21 | 11 | 1.6 | 16.1 | 0.00 | 0.10 | 0.10 | 76 | 1014.2 |
| 20260508015211 | 21 | 11 | 0.0 | 16.1 | 0.00 | 0.10 | 0.10 | 76 | 1014.1 |
| 20260508015129 | 21 | 10 | 0.0 | 16.1 | 0.00 | 0.10 | 0.10 | 76 | 1014.1 |
| 20260508015031 | 21 | 10 | 1.6 | 16.1 | 0.00 | 0.10 | 0.10 | 76 | 1014.1 |
| 20260508014938 | 21 | 10 | 4.8 | 16.1 | 0.00 | 0.10 | 0.10 | 76 | 1014.1 |
| 20260508014831 | 21 | 10 | 4.8 | 16.1 | 0.00 | 0.10 | 0.10 | 76 | 1014.1 |
| 20260508014717 | 21 | 36 | 6.4 | 16.1 | 0.00 | 0.10 | 0.10 | 76 | 1014.1 |
| 20260508014636 | 21 | 36 | 4.8 | 16.1 | 0.00 | 0.10 | 0.10 | 76 | 1014.0 |
| 20260508014537 | 21 | 22 | 3.2 | 9.7 | 0.00 | 0.10 | 0.10 | 76 | 1014.0 |
| 20260508014424 | 21 | 22 | 3.2 | 9.7 | 0.00 | 0.10 | 0.10 | 76 | 1013.9 |
| 20260508014331 | 21 | 355 | 3.2 | 8.0 | 0.00 | 0.10 | 0.10 | 76 | 1014.0 |
| 20260508014217 | 21 | 32 | 3.2 | 8.0 | 0.00 | 0.10 | 0.10 | 76 | 1014.0 |
| 20260508014201 | 21 | 32 | 3.2 | 8.0 | 0.00 | 0.10 | 0.10 | 76 | 1013.9 |
| 20260508014020 | 21 | 33 | 3.2 | 8.0 | 0.00 | 0.10 | 0.10 | 76 | 1013.8 |
| 20260508013933 | 21 | 41 | 3.2 | 8.0 | 0.00 | 0.10 | 0.10 | 76 | 1013.8 |
| 20260508013819 | 21 | 38 | 3.2 | 8.0 | 0.00 | 0.10 | 0.10 | 76 | 1013.7 |
| 20260508013715 | 21 | 38 | 3.2 | 8.0 | 0.00 | 0.10 | 0.10 | 76 | 1013.6 |
| 20260508013628 | 21 | 42 | 3.2 | 8.0 | 0.00 | 0.10 | 0.10 | 76 | 1013.6 |
| 20260508013525 | 21 | 30 | 3.2 | 8.0 | 0.00 | 0.10 | 0.10 | 76 | 1013.5 |
| 20260508013436 | 21 | 11 | 3.2 | 6.4 | 0.00 | 0.10 | 0.10 | 76 | 1013.6 |
| 20260508013328 | 21 | 11 | 1.6 | 6.4 | 0.00 | 0.10 | 0.10 | 76 | 1013.6 |
| 20260508013214 | 21 | 9 | 1.6 | 6.4 | 0.00 | 0.10 | 0.10 | 76 | 1013.7 |
| 20260508013140 | 21 | 9 | 3.2 | 6.4 | 0.00 | 0.10 | 0.10 | 76 | 1013.7 |
| 20260508013016 | 21 | 9 | 3.2 | 9.7 | 0.00 | 0.10 | 0.10 | 76 | 1013.8 |
| 20260508012923 | 21 | 9 | 3.2 | 9.7 | 0.00 | 0.10 | 0.10 | 76 | 1013.8 |
| 20260508012813 | 21 | 10 | 1.6 | 14.5 | 0.00 | 0.10 | 0.10 | 76 | 1013.9 |
| 20260508012739 | 21 | 10 | 1.6 | 14.5 | 0.00 | 0.10 | 0.10 | 76 | 1013.9 |
| 20260508012623 | 21 | 10 | 3.2 | 14.5 | 0.00 | 0.10 | 0.10 | 75 | 1013.9 |
| 20260508012544 | 21 | 10 | 3.2 | 14.5 | 0.00 | 0.10 | 0.10 | 75 | 1013.9 |
| 20260508012456 | 21 | 9 | 3.2 | 14.5 | 0.00 | 0.10 | 0.10 | 75 | 1013.9 |
| 20260508012343 | 21 | 9 | 3.2 | 16.1 | 0.00 | 0.10 | 0.10 | 75 | 1013.9 |
| 20260508012222 | 21 | 9 | 4.8 | 16.1 | 0.00 | 0.10 | 0.10 | 75 | 1013.9 |
| 20260508012133 | 21 | 9 | 6.4 | 16.1 | 0.00 | 0.10 | 0.10 | 75 | 1013.9 |
| 20260508012028 | 21 | 23 | 4.8 | 16.1 | 0.00 | 0.10 | 0.10 | 75 | 1013.9 |
| 20260508011913 | 21 | 5 | 4.8 | 16.1 | 0.00 | 0.10 | 0.10 | 75 | 1013.9 |
| 20260508011828 | 21 | 39 | 4.8 | 17.7 | 0.00 | 0.10 | 0.10 | 75 | 1013.9 |
| 20260508011713 | 21 | 28 | 3.2 | 17.7 | 0.00 | 0.10 | 0.10 | 75 | 1013.9 |
| 20260508011635 | 21 | 29 | 3.2 | 17.7 | 0.00 | 0.10 | 0.10 | 75 | 1013.9 |
| 20260508011536 | 21 | 29 | 6.4 | 17.7 | 0.00 | 0.10 | 0.10 | 75 | 1013.9 |
| 20260508011422 | 21 | 29 | 8.0 | 17.7 | 0.00 | 0.10 | 0.10 | 75 | 1013.9 |
| 20260508011329 | 21 | 44 | 8.0 | 17.7 | 0.00 | 0.10 | 0.10 | 75 | 1014.0 |
| 20260508011223 | 21 | 360 | 6.4 | 17.7 | 0.00 | 0.10 | 0.10 | 74 | 1013.9 |
| 20260508011123 | 21 | 344 | 9.7 | 17.7 | 0.00 | 0.10 | 0.10 | 75 | 1014.0 |
| 20260508011018 | 21 | 53 | 8.0 | 17.7 | 0.00 | 0.10 | 0.10 | 75 | 1014.0 |
| 20260508010932 | 21 | 13 | 6.4 | 17.7 | 0.00 | 0.10 | 0.10 | 75 | 1014.0 |
| 20260508010817 | 21 | 350 | 4.8 | 14.5 | 0.00 | 0.10 | 0.10 | 75 | 1013.9 |
| 20260508010714 | 21 | 349 | 6.4 | 14.5 | 0.00 | 0.10 | 0.10 | 75 | 1013.9 |
| 20260508010628 | 21 | 360 | 6.4 | 14.5 | 0.00 | 0.10 | 0.10 | 75 | 1013.9 |
| 20260508010526 | 21 | 355 | 6.4 | 14.5 | 0.00 | 0.10 | 0.10 | 74 | 1013.9 |
| 20260508010440 | 21 | 349 | 6.4 | 17.7 | 0.00 | 0.10 | 0.10 | 74 | 1013.9 |
| 20260508010326 | 21 | 355 | 6.4 | 17.7 | 0.00 | 0.10 | 0.10 | 74 | 1013.9 |
| 20260508010222 | 21 | 360 | 6.4 | 17.7 | 0.00 | 0.10 | 0.10 | 74 | 1013.8 |
| 20260508010136 | 21 | 349 | 6.4 | 17.7 | 0.00 | 0.10 | 0.10 | 74 | 1013.8 |
| 20260508010030 | 22 | 345 | 4.8 | 17.7 | 0.00 | 0.10 | 0.10 | 74 | 1013.8 |
| 20260508005925 | 22 | 19 | 3.2 | 17.7 | 0.00 | 0.10 | 0.10 | 74 | 1013.7 |
| 20260508005858 | 22 | 351 | 1.6 | 17.7 | 0.00 | 0.10 | 0.10 | 74 | 1013.7 |
| 20260508005725 | 22 | 350 | 3.2 | 17.7 | 0.00 | 0.10 | 0.10 | 74 | 1013.7 |
| 20260508005642 | 22 | 350 | 4.8 | 17.7 | 0.00 | 0.10 | 0.10 | 74 | 1013.7 |
| 20260508005518 | 22 | 5 | 6.4 | 17.7 | 0.00 | 0.10 | 0.10 | 74 | 1013.7 |
| 20260508005432 | 22 | 28 | 4.8 | 17.7 | 0.00 | 0.10 | 0.10 | 74 | 1013.7 |
| 20260508005324 | 22 | 27 | 4.8 | 17.7 | 0.00 | 0.10 | 0.10 | 74 | 1013.7 |
| 20260508005223 | 22 | 355 | 6.4 | 17.7 | 0.00 | 0.10 | 0.10 | 74 | 1013.7 |
| 20260508005028 | 22 | 351 | 4.8 | 17.7 | 0.00 | 0.10 | 0.10 | 74 | 1013.6 |
| 20260508004913 | 22 | 27 | 6.4 | 17.7 | 0.00 | 0.10 | 0.10 | 74 | 1013.6 |
| 20260508004828 | 22 | 29 | 8.0 | 17.7 | 0.00 | 0.10 | 0.10 | 74 | 1013.6 |
| 20260508004740 | 22 | 350 | 6.4 | 17.7 | 0.00 | 0.10 | 0.10 | 74 | 1013.6 |
| 20260508004703 | 22 | 11 | 8.0 | 17.7 | 0.00 | 0.10 | 0.10 | 74 | 1013.6 |
| 20260508004518 | 22 | 345 | 8.0 | 17.7 | 0.00 | 0.10 | 0.10 | 74 | 1013.6 |
| 20260508004450 | 22 | 15 | 6.4 | 14.5 | 0.00 | 0.10 | 0.10 | 74 | 1013.6 |
| 20260508004316 | 22 | 15 | 6.4 | 14.5 | 0.00 | 0.10 | 0.10 | 74 | 1013.5 |
| 20260508004212 | 22 | 5 | 4.8 | 14.5 | 0.00 | 0.10 | 0.10 | 74 | 1013.5 |
| 20260508004128 | 22 | 360 | 4.8 | 14.5 | 0.00 | 0.10 | 0.10 | 74 | 1013.5 |
| 20260508004023 | 22 | 32 | 3.2 | 14.5 | 0.00 | 0.10 | 0.10 | 74 | 1013.5 |
| 20260508003957 | 22 | 38 | 4.8 | 14.5 | 0.00 | 0.10 | 0.10 | 74 | 1013.4 |
| 20260508003824 | 22 | 355 | 6.4 | 14.5 | 0.00 | 0.10 | 0.10 | 73 | 1013.4 |
| 20260508003740 | 22 | 339 | 6.4 | 14.5 | 0.00 | 0.10 | 0.10 | 74 | 1013.5 |
| 20260508003652 | 22 | 346 | 6.4 | 14.5 | 0.00 | 0.10 | 0.10 | 74 | 1013.5 |
| 20260508003553 | 22 | 350 | 6.4 | 14.5 | 0.00 | 0.10 | 0.10 | 74 | 1013.5 |
| 20260508003422 | 22 | 346 | 4.8 | 14.5 | 0.00 | 0.10 | 0.10 | 74 | 1013.5 |
| 20260508003329 | 22 | 355 | 1.6 | 9.7 | 0.00 | 0.10 | 0.10 | 74 | 1013.4 |
| 20260508003214 | 22 | 5 | 1.6 | 16.1 | 0.00 | 0.10 | 0.10 | 73 | 1013.4 |
| 20260508003138 | 22 | 344 | 3.2 | 16.1 | 0.00 | 0.10 | 0.10 | 73 | 1013.4 |
| 20260508003012 | 22 | 343 | 3.2 | 16.1 | 0.00 | 0.10 | 0.10 | 73 | 1013.3 |
| 20260508002920 | 22 | 348 | 3.2 | 16.1 | 0.00 | 0.10 | 0.10 | 73 | 1013.3 |
| 20260508002856 | 22 | 348 | 3.2 | 16.1 | 0.00 | 0.10 | 0.10 | 73 | 1013.3 |
| 20260508002743 | 22 | 19 | 3.2 | 16.1 | 0.00 | 0.10 | 0.10 | 73 | 1013.3 |
| 20260508002645 | 22 | 19 | 4.8 | 16.1 | 0.00 | 0.10 | 0.10 | 73 | 1013.3 |
| 20260508002520 | 23 | 346 | 8.0 | 16.1 | 0.00 | 0.10 | 0.10 | 72 | 1013.3 |
| 20260508002454 | 23 | 338 | 8.0 | 16.1 | 0.00 | 0.10 | 0.10 | 72 | 1013.3 |
| 20260508002320 | 23 | 355 | 8.0 | 14.5 | 0.00 | 0.10 | 0.10 | 72 | 1013.3 |
| 20260508002221 | 23 | 342 | 6.4 | 14.5 | 0.00 | 0.10 | 0.10 | 73 | 1013.3 |
| 20260508002132 | 23 | 344 | 4.8 | 14.5 | 0.00 | 0.10 | 0.10 | 73 | 1013.4 |
| 20260508002026 | 23 | 12 | 3.2 | 9.7 | 0.00 | 0.10 | 0.10 | 73 | 1013.4 |
| 20260508001940 | 23 | 12 | 4.8 | 12.9 | 0.00 | 0.10 | 0.10 | 72 | 1013.4 |
| 20260508001826 | 23 | 338 | 3.2 | 12.9 | 0.00 | 0.10 | 0.10 | 73 | 1013.4 |
| 20260508001722 | 23 | 342 | 1.6 | 16.1 | 0.00 | 0.10 | 0.10 | 73 | 1013.4 |
| 20260508001639 | 23 | 355 | 1.6 | 16.1 | 0.00 | 0.10 | 0.10 | 72 | 1013.4 |
| 20260508001535 | 23 | 351 | 1.6 | 16.1 | 0.00 | 0.10 | 0.10 | 72 | 1013.3 |
| 20260508001419 | 23 | 351 | 3.2 | 16.1 | 0.00 | 0.10 | 0.10 | 72 | 1013.3 |
| 20260508001333 | 23 | 340 | 3.2 | 16.1 | 0.00 | 0.10 | 0.10 | 72 | 1013.3 |
| 20260508001227 | 23 | 338 | 4.8 | 16.1 | 0.00 | 0.10 | 0.10 | 72 | 1013.2 |
| 20260508001200 | 23 | 338 | 6.4 | 16.1 | 0.00 | 0.10 | 0.10 | 72 | 1013.2 |
| 20260508001019 | 23 | 5 | 6.4 | 16.1 | 0.00 | 0.10 | 0.10 | 72 | 1013.2 |
| 20260508000925 | 23 | 360 | 6.4 | 16.1 | 0.00 | 0.10 | 0.10 | 72 | 1013.3 |
| 20260508000832 | 23 | 355 | 6.4 | 16.1 | 0.00 | 0.10 | 0.10 | 72 | 1013.3 |
| 20260508000728 | 23 | 334 | 4.8 | 12.9 | 0.00 | 0.10 | 0.10 | 72 | 1013.3 |
| 20260508000641 | 23 | 355 | 4.8 | 12.9 | 0.00 | 0.10 | 0.10 | 72 | 1013.3 |
| 20260508000520 | 23 | 345 | 6.4 | 12.9 | 0.00 | 0.10 | 0.10 | 71 | 1013.3 |
| 20260508000457 | 23 | 342 | 3.2 | 12.9 | 0.00 | 0.10 | 0.10 | 71 | 1013.2 |
| 20260508000320 | 23 | 360 | 3.2 | 17.7 | 0.00 | 0.10 | 0.10 | 71 | 1013.3 |
| 20260508000227 | 23 | 360 | 4.8 | 17.7 | 0.00 | 0.10 | 0.10 | 71 | 1013.2 |
| 20260508000149 | 23 | 350 | 4.8 | 17.7 | 0.00 | 0.10 | 0.10 | 71 | 1013.3 |
| 20260508000024 | 23 | 350 | 6.4 | 17.7 | 0.00 | 0.10 | 0.10 | 71 | 1013.3 |
| 20260507235935 | 23 | 348 | 4.8 | 17.7 | 0.00 | 0.10 | 0.10 | 71 | 1013.2 |
| 20260507235823 | 23 | 355 | 4.8 | 17.7 | 0.00 | 0.10 | 0.10 | 71 | 1013.2 |
| 20260507235725 | 23 | 344 | 4.8 | 17.7 | 0.00 | 0.10 | 0.10 | 71 | 1013.2 |
| 20260507235654 | 23 | 360 | 4.8 | 17.7 | 0.00 | 0.10 | 0.10 | 71 | 1013.2 |
| 20260507235554 | 23 | 5 | 6.4 | 17.7 | 0.00 | 0.10 | 0.10 | 71 | 1013.2 |
| 20260507235422 | 24 | 15 | 4.8 | 9.7 | 0.00 | 0.10 | 0.10 | 71 | 1013.1 |
| 20260507235333 | 24 | 17 | 3.2 | 9.7 | 0.00 | 0.10 | 0.10 | 71 | 1013.2 |
| 20260507235228 | 24 | 360 | 3.2 | 9.7 | 0.00 | 0.10 | 0.10 | 71 | 1013.2 |
| 20260507235200 | 24 | 15 | 3.2 | 9.7 | 0.00 | 0.10 | 0.10 | 71 | 1013.2 |
| 20260507235036 | 24 | 5 | 4.8 | 9.7 | 0.00 | 0.10 | 0.10 | 71 | 1013.2 |
| 20260507234921 | 24 | 5 | 1.6 | 9.7 | 0.00 | 0.10 | 0.10 | 71 | 1013.2 |
| 20260507234835 | 24 | 19 | 0.0 | 9.7 | 0.00 | 0.10 | 0.10 | 71 | 1013.2 |
| 20260507234724 | 24 | 20 | 1.6 | 9.7 | 0.00 | 0.10 | 0.10 | 70 | 1013.2 |
| 20260507234640 | 24 | 20 | 1.6 | 9.7 | 0.00 | 0.10 | 0.10 | 70 | 1013.2 |
| 20260507234524 | 24 | 38 | 1.6 | 9.7 | 0.00 | 0.10 | 0.10 | 70 | 1013.2 |
| 20260507234448 | 24 | 355 | 1.6 | 9.7 | 0.00 | 0.10 | 0.10 | 70 | 1013.2 |
| 20260507234341 | 24 | 355 | 1.6 | 9.7 | 0.00 | 0.10 | 0.10 | 70 | 1013.2 |
| 20260507234239 | 24 | 28 | 3.2 | 9.7 | 0.00 | 0.10 | 0.10 | 70 | 1013.2 |
| 20260507234133 | 24 | 29 | 4.8 | 9.7 | 0.00 | 0.10 | 0.10 | 70 | 1013.2 |
| 20260507234028 | 24 | 38 | 4.8 | 12.9 | 0.00 | 0.10 | 0.10 | 70 | 1013.2 |
| 20260507233920 | 24 | 30 | 3.2 | 12.9 | 0.00 | 0.10 | 0.10 | 70 | 1013.3 |
| 20260507233828 | 24 | 24 | 3.2 | 12.9 | 0.00 | 0.10 | 0.10 | 70 | 1013.2 |
| 20260507233743 | 24 | 24 | 3.2 | 12.9 | 0.00 | 0.10 | 0.10 | 70 | 1013.3 |
| 20260507233634 | 24 | 24 | 3.2 | 12.9 | 0.00 | 0.10 | 0.10 | 70 | 1013.3 |
| 20260507233536 | 24 | 360 | 3.2 | 12.9 | 0.00 | 0.10 | 0.10 | 69 | 1013.3 |
| 20260507233447 | 24 | 350 | 4.8 | 14.5 | 0.00 | 0.10 | 0.10 | 70 | 1013.3 |
| 20260507233334 | 24 | 24 | 4.8 | 14.5 | 0.00 | 0.10 | 0.10 | 69 | 1013.3 |
| 20260507233220 | 25 | 30 | 3.2 | 14.5 | 0.00 | 0.10 | 0.10 | 69 | 1013.2 |
| 20260507233144 | 25 | 34 | 1.6 | 14.5 | 0.00 | 0.10 | 0.10 | 69 | 1013.2 |
| 20260507233019 | 25 | 33 | 3.2 | 14.5 | 0.00 | 0.10 | 0.10 | 69 | 1013.2 |
| 20260507232930 | 25 | 33 | 4.8 | 14.5 | 0.00 | 0.10 | 0.10 | 69 | 1013.2 |
| 20260507232843 | 25 | 32 | 4.8 | 14.5 | 0.00 | 0.10 | 0.10 | 69 | 1013.2 |
| 20260507232720 | 25 | 10 | 6.4 | 14.5 | 0.00 | 0.10 | 0.10 | 69 | 1013.2 |
| 20260507232645 | 25 | 13 | 6.4 | 14.5 | 0.00 | 0.10 | 0.10 | 69 | 1013.2 |
| 20260507232521 | 25 | 34 | 3.2 | 8.0 | 0.00 | 0.10 | 0.10 | 69 | 1013.2 |
| 20260507232419 | 25 | 360 | 3.2 | 8.0 | 0.00 | 0.10 | 0.10 | 69 | 1013.2 |
| 20260507232326 | 25 | 33 | 3.2 | 8.0 | 0.00 | 0.10 | 0.10 | 69 | 1013.2 |
| 20260507232222 | 25 | 33 | 1.6 | 14.5 | 0.00 | 0.10 | 0.10 | 69 | 1013.2 |
| 20260507232133 | 25 | 5 | 1.6 | 14.5 | 0.00 | 0.10 | 0.10 | 69 | 1013.2 |
| 20260507232030 | 25 | 5 | 1.6 | 14.5 | 0.00 | 0.10 | 0.10 | 69 | 1013.2 |
| 20260507231937 | 25 | 5 | 3.2 | 14.5 | 0.00 | 0.10 | 0.10 | 69 | 1013.2 |
| 20260507231827 | 25 | 5 | 3.2 | 14.5 | 0.00 | 0.10 | 0.10 | 69 | 1013.2 |
| 20260507231722 | 25 | 54 | 4.8 | 14.5 | 0.00 | 0.10 | 0.10 | 69 | 1013.2 |
| 20260507231657 | 25 | 54 | 4.8 | 14.5 | 0.00 | 0.10 | 0.10 | 69 | 1013.2 |
| 20260507231538 | 25 | 17 | 6.4 | 14.5 | 0.00 | 0.10 | 0.10 | 69 | 1013.2 |
| 20260507231425 | 25 | 360 | 6.4 | 14.5 | 0.00 | 0.10 | 0.10 | 69 | 1013.2 |
| 20260507231332 | 25 | 19 | 6.4 | 14.5 | 0.00 | 0.10 | 0.10 | 69 | 1013.2 |
| 20260507231223 | 25 | 13 | 6.4 | 14.5 | 0.00 | 0.10 | 0.10 | 69 | 1013.2 |
| 20260507231146 | 25 | 342 | 6.4 | 14.5 | 0.00 | 0.10 | 0.10 | 69 | 1013.2 |
| 20260507231022 | 25 | 350 | 3.2 | 12.9 | 0.00 | 0.10 | 0.10 | 69 | 1013.2 |
| 20260507230929 | 25 | 360 | 3.2 | 12.9 | 0.00 | 0.10 | 0.10 | 69 | 1013.2 |
| 20260507230843 | 25 | 5 | 3.2 | 12.9 | 0.00 | 0.10 | 0.10 | 69 | 1013.2 |
| 20260507230718 | 25 | 5 | 3.2 | 12.9 | 0.00 | 0.10 | 0.10 | 69 | 1013.3 |
| 20260507230630 | 25 | 347 | 3.2 | 12.9 | 0.00 | 0.10 | 0.10 | 69 | 1013.3 |
| 20260507230532 | 25 | 338 | 4.8 | 12.9 | 0.00 | 0.10 | 0.10 | 69 | 1013.3 |
| 20260507230419 | 25 | 30 | 4.8 | 12.9 | 0.00 | 0.10 | 0.10 | 68 | 1013.3 |
| 20260507230327 | 25 | 55 | 4.8 | 12.9 | 0.00 | 0.10 | 0.10 | 69 | 1013.3 |
| 20260507230218 | 25 | 10 | 6.4 | 12.9 | 0.00 | 0.10 | 0.10 | 69 | 1013.4 |
| 20260507230142 | 25 | 9 | 6.4 | 12.9 | 0.00 | 0.10 | 0.10 | 68 | 1013.4 |
| 20260507230018 | 25 | 28 | 4.8 | 12.9 | 0.00 | 0.10 | 0.10 | 69 | 1013.4 |
| 20260507225925 | 25 | 27 | 4.8 | 12.9 | 0.00 | 0.10 | 0.10 | 69 | 1013.4 |
| 20260507225831 | 25 | 355 | 1.6 | 12.9 | 0.00 | 0.10 | 0.10 | 69 | 1013.4 |
| 20260507225722 | 25 | 36 | 1.6 | 12.9 | 0.00 | 0.10 | 0.10 | 69 | 1013.4 |
| 20260507225706 | 25 | 36 | 3.2 | 12.9 | 0.00 | 0.10 | 0.10 | 69 | 1013.4 |
| 20260507225520 | 25 | 11 | 3.2 | 12.9 | 0.00 | 0.10 | 0.10 | 69 | 1013.3 |
| 20260507225434 | 25 | 21 | 3.2 | 12.9 | 0.00 | 0.10 | 0.10 | 69 | 1013.3 |
| 20260507225321 | 25 | 27 | 4.8 | 12.9 | 0.00 | 0.10 | 0.10 | 69 | 1013.3 |
| 20260507225226 | 25 | 340 | 6.4 | 14.5 | 0.00 | 0.10 | 0.10 | 69 | 1013.3 |
| 20260507225153 | 25 | 339 | 6.4 | 16.1 | 0.00 | 0.10 | 0.10 | 69 | 1013.3 |
| 20260507225029 | 25 | 340 | 3.2 | 16.1 | 0.00 | 0.10 | 0.10 | 69 | 1013.2 |
| 20260507224936 | 25 | 355 | 3.2 | 16.1 | 0.00 | 0.10 | 0.10 | 69 | 1013.2 |
| 20260507224842 | 25 | 345 | 4.8 | 16.1 | 0.00 | 0.10 | 0.10 | 69 | 1013.2 |
| 20260507224724 | 25 | 347 | 6.4 | 16.1 | 0.00 | 0.10 | 0.10 | 69 | 1013.3 |
| 20260507224636 | 25 | 48 | 6.4 | 16.1 | 0.00 | 0.10 | 0.10 | 69 | 1013.2 |
| 20260507224535 | 25 | 28 | 6.4 | 19.3 | 0.00 | 0.10 | 0.10 | 69 | 1013.2 |
| 20260507224449 | 25 | 360 | 8.0 | 19.3 | 0.00 | 0.10 | 0.10 | 69 | 1013.2 |
| 20260507224335 | 25 | 333 | 6.4 | 19.3 | 0.00 | 0.10 | 0.10 | 69 | 1013.2 |
| 20260507224222 | 25 | 9 | 4.8 | 19.3 | 0.00 | 0.10 | 0.10 | 69 | 1013.2 |
| 20260507224145 | 25 | 12 | 4.8 | 19.3 | 0.00 | 0.10 | 0.10 | 69 | 1013.2 |
| 20260507224021 | 25 | 47 | 4.8 | 19.3 | 0.00 | 0.10 | 0.10 | 68 | 1013.2 |
| 20260507223951 | 25 | 40 | 4.8 | 19.3 | 0.00 | 0.10 | 0.10 | 69 | 1013.2 |
| 20260507223843 | 25 | 346 | 4.8 | 19.3 | 0.00 | 0.10 | 0.10 | 68 | 1013.2 |
| 20260507223739 | 25 | 348 | 6.4 | 19.3 | 0.00 | 0.10 | 0.10 | 68 | 1013.2 |
| 20260507223650 | 25 | 355 | 8.0 | 19.3 | 0.00 | 0.10 | 0.10 | 68 | 1013.3 |
| 20260507223526 | 25 | 20 | 8.0 | 16.1 | 0.00 | 0.10 | 0.10 | 68 | 1013.2 |
| 20260507223432 | 25 | 332 | 8.0 | 16.1 | 0.00 | 0.10 | 0.10 | 68 | 1013.2 |
| 20260507223350 | 25 | 360 | 4.8 | 16.1 | 0.00 | 0.10 | 0.10 | 68 | 1013.2 |
| 20260507223247 | 25 | 355 | 3.2 | 12.9 | 0.00 | 0.10 | 0.10 | 69 | 1013.2 |
| 20260507223159 | 25 | 360 | 4.8 | 12.9 | 0.00 | 0.10 | 0.10 | 69 | 1013.1 |
| 20260507223033 | 25 | 360 | 4.8 | 12.9 | 0.00 | 0.10 | 0.10 | 69 | 1013.1 |
| 20260507222919 | 25 | 17 | 3.2 | 16.1 | 0.00 | 0.10 | 0.10 | 68 | 1013.2 |
| 20260507222833 | 25 | 25 | 4.8 | 16.1 | 0.00 | 0.10 | 0.10 | 68 | 1013.2 |
| 20260507222722 | 25 | 26 | 4.8 | 16.1 | 0.00 | 0.10 | 0.10 | 68 | 1013.2 |
| 20260507222706 | 25 | 11 | 3.2 | 16.1 | 0.00 | 0.10 | 0.10 | 68 | 1013.2 |
| 20260507222521 | 25 | 46 | 3.2 | 16.1 | 0.00 | 0.10 | 0.10 | 68 | 1013.2 |
| 20260507222428 | 25 | 47 | 4.8 | 16.1 | 0.00 | 0.10 | 0.10 | 68 | 1013.2 |
| 20260507222334 | 25 | 355 | 4.8 | 17.7 | 0.00 | 0.10 | 0.10 | 68 | 1013.2 |
| 20260507222221 | 25 | 355 | 6.4 | 17.7 | 0.00 | 0.10 | 0.10 | 68 | 1013.2 |
| 20260507222147 | 25 | 24 | 4.8 | 17.7 | 0.00 | 0.10 | 0.10 | 68 | 1013.2 |
| 20260507222022 | 25 | 5 | 3.2 | 17.7 | 0.00 | 0.10 | 0.10 | 68 | 1013.2 |
| 20260507221929 | 25 | 360 | 3.2 | 17.7 | 0.00 | 0.10 | 0.10 | 68 | 1013.2 |
| 20260507221824 | 25 | 5 | 6.4 | 17.7 | 0.00 | 0.10 | 0.10 | 67 | 1013.2 |
| 20260507221740 | 26 | 360 | 8.0 | 17.7 | 0.00 | 0.10 | 0.10 | 67 | 1013.2 |
| 20260507221631 | 26 | 16 | 6.4 | 17.7 | 0.00 | 0.10 | 0.10 | 67 | 1013.2 |
| 20260507221558 | 26 | 342 | 6.4 | 17.7 | 0.00 | 0.10 | 0.10 | 67 | 1013.2 |
| 20260507221424 | 26 | 9 | 3.2 | 14.5 | 0.00 | 0.10 | 0.10 | 68 | 1013.2 |
| 20260507221331 | 26 | 355 | 1.6 | 14.5 | 0.00 | 0.10 | 0.10 | 68 | 1013.1 |
| 20260507221221 | 26 | 33 | 3.2 | 14.5 | 0.00 | 0.10 | 0.10 | 68 | 1013.1 |
| 20260507221205 | 26 | 33 | 4.8 | 14.5 | 0.00 | 0.10 | 0.10 | 68 | 1013.1 |
| 20260507221020 | 26 | 349 | 4.8 | 14.5 | 0.00 | 0.10 | 0.10 | 69 | 1013.1 |
| 20260507220927 | 25 | 345 | 6.4 | 14.5 | 0.00 | 0.10 | 0.10 | 68 | 1013.1 |
| 20260507220837 | 25 | 34 | 6.4 | 14.5 | 0.00 | 0.10 | 0.10 | 68 | 1013.1 |
| 20260507220723 | 26 | 22 | 6.4 | 14.5 | 0.00 | 0.10 | 0.10 | 67 | 1013.1 |
| 20260507220646 | 26 | 30 | 4.8 | 14.5 | 0.00 | 0.10 | 0.10 | 67 | 1013.1 |
| 20260507220523 | 26 | 330 | 3.2 | 9.7 | 0.00 | 0.10 | 0.10 | 68 | 1013.1 |
| 20260507220430 | 26 | 330 | 4.8 | 14.5 | 0.00 | 0.10 | 0.10 | 67 | 1013.1 |
| 20260507220322 | 26 | 333 | 6.4 | 14.5 | 0.00 | 0.10 | 0.10 | 68 | 1013.2 |
| 20260507220226 | 26 | 22 | 6.4 | 14.5 | 0.00 | 0.10 | 0.10 | 68 | 1013.1 |
| 20260507220130 | 26 | 9 | 4.8 | 17.7 | 0.00 | 0.10 | 0.10 | 67 | 1013.1 |
| 20260507220033 | 26 | 26 | 3.2 | 17.7 | 0.00 | 0.10 | 0.10 | 67 | 1013.1 |
| 20260507215920 | 26 | 341 | 4.8 | 17.7 | 0.00 | 0.10 | 0.10 | 68 | 1013.2 |
| 20260507215830 | 26 | 33 | 4.8 | 17.7 | 0.00 | 0.10 | 0.10 | 68 | 1013.2 |
| 20260507215727 | 26 | 44 | 4.8 | 17.7 | 0.00 | 0.10 | 0.10 | 67 | 1013.2 |
| 20260507215639 | 26 | 30 | 6.4 | 17.7 | 0.00 | 0.10 | 0.10 | 68 | 1013.2 |
| 20260507215534 | 26 | 35 | 6.4 | 17.7 | 0.00 | 0.10 | 0.10 | 68 | 1013.2 |
| 20260507215422 | 26 | 13 | 6.4 | 17.7 | 0.00 | 0.10 | 0.10 | 68 | 1013.2 |
| 20260507215335 | 26 | 346 | 6.4 | 17.7 | 0.00 | 0.10 | 0.10 | 68 | 1013.2 |
| 20260507215218 | 26 | 360 | 3.2 | 17.7 | 0.00 | 0.10 | 0.10 | 68 | 1013.2 |
| 20260507215152 | 26 | 360 | 4.8 | 17.7 | 0.00 | 0.10 | 0.10 | 68 | 1013.2 |
| 20260507215019 | 25 | 355 | 4.8 | 17.7 | 0.00 | 0.10 | 0.10 | 68 | 1013.2 |
| 20260507214954 | 25 | 9 | 3.2 | 17.7 | 0.00 | 0.10 | 0.10 | 68 | 1013.2 |
| 20260507214818 | 26 | 5 | 3.2 | 17.7 | 0.00 | 0.10 | 0.10 | 68 | 1013.2 |
| 20260507214719 | 26 | 351 | 8.0 | 17.7 | 0.00 | 0.10 | 0.10 | 67 | 1013.2 |
| 20260507214631 | 26 | 346 | 8.0 | 17.7 | 0.00 | 0.10 | 0.10 | 67 | 1013.2 |
| 20260507214534 | 26 | 360 | 6.4 | 17.7 | 0.00 | 0.10 | 0.10 | 67 | 1013.2 |
| 20260507214441 | 26 | 346 | 4.8 | 14.5 | 0.00 | 0.10 | 0.10 | 67 | 1013.2 |
| 20260507214325 | 26 | 344 | 6.4 | 14.5 | 0.00 | 0.10 | 0.10 | 67 | 1013.2 |
| 20260507214240 | 26 | 5 | 8.0 | 14.5 | 0.00 | 0.10 | 0.10 | 69 | 1013.2 |
| 20260507214139 | 26 | 360 | 8.0 | 14.5 | 0.00 | 0.10 | 0.10 | 69 | 1013.2 |
| 20260507214041 | 26 | 360 | 6.4 | 16.1 | 0.00 | 0.10 | 0.10 | 68 | 1013.2 |
| 20260507213929 | 26 | 360 | 4.8 | 16.1 | 0.00 | 0.10 | 0.10 | 68 | 1013.2 |
| 20260507213836 | 26 | 342 | 3.2 | 16.1 | 0.00 | 0.10 | 0.10 | 70 | 1013.2 |
| 20260507213723 | 25 | 45 | 3.2 | 16.1 | 0.00 | 0.10 | 0.10 | 68 | 1013.2 |
| 20260507213629 | 25 | 46 | 3.2 | 16.1 | 0.00 | 0.10 | 0.10 | 68 | 1013.2 |
| 20260507213525 | 25 | 47 | 4.8 | 16.1 | 0.00 | 0.10 | 0.10 | 68 | 1013.2 |
| 20260507213500 | 25 | 22 | 3.2 | 16.1 | 0.00 | 0.10 | 0.10 | 68 | 1013.2 |
| 20260507213325 | 25 | 355 | 4.8 | 16.1 | 0.00 | 0.10 | 0.10 | 68 | 1013.2 |
| 20260507213221 | 25 | 348 | 6.4 | 16.1 | 0.00 | 0.10 | 0.10 | 67 | 1013.2 |
| 20260507213153 | 25 | 45 | 4.8 | 14.5 | 0.00 | 0.10 | 0.10 | 67 | 1013.2 |
| 20260507213032 | 25 | 41 | 4.8 | 14.5 | 0.00 | 0.10 | 0.10 | 68 | 1013.1 |
| 20260507212936 | 25 | 37 | 6.4 | 14.5 | 0.00 | 0.10 | 0.10 | 67 | 1013.2 |
| 20260507212824 | 25 | 32 | 4.8 | 14.5 | 0.00 | 0.10 | 0.10 | 68 | 1013.1 |
| 20260507212720 | 25 | 27 | 3.2 | 12.9 | 0.00 | 0.10 | 0.10 | 67 | 1013.1 |
| 20260507212654 | 25 | 355 | 4.8 | 14.5 | 0.00 | 0.10 | 0.10 | 68 | 1013.1 |
| 20260507212535 | 25 | 355 | 6.4 | 14.5 | 0.00 | 0.10 | 0.10 | 68 | 1013.1 |
| 20260507212426 | 25 | 42 | 4.8 | 14.5 | 0.00 | 0.10 | 0.10 | 68 | 1013.1 |
| 20260507212333 | 25 | 344 | 6.4 | 14.5 | 0.00 | 0.10 | 0.10 | 68 | 1013.1 |
| 20260507212220 | 25 | 30 | 6.4 | 14.5 | 0.00 | 0.10 | 0.10 | 68 | 1013.1 |
| 20260507212142 | 26 | 360 | 4.8 | 14.5 | 0.00 | 0.10 | 0.10 | 67 | 1013.1 |
| 20260507212039 | 26 | 355 | 3.2 | 14.5 | 0.00 | 0.10 | 0.10 | 67 | 1013.0 |
| 20260507211933 | 26 | 360 | 4.8 | 14.5 | 0.00 | 0.10 | 0.10 | 68 | 1013.0 |
| 20260507211843 | 26 | 22 | 6.4 | 16.1 | 0.00 | 0.10 | 0.10 | 67 | 1013.0 |
| 20260507211738 | 26 | 355 | 6.4 | 16.1 | 0.00 | 0.10 | 0.10 | 67 | 1013.0 |
| 20260507211629 | 26 | 350 | 4.8 | 16.1 | 0.00 | 0.10 | 0.10 | 68 | 1013.0 |
| 20260507211553 | 26 | 15 | 4.8 | 16.1 | 0.00 | 0.10 | 0.10 | 68 | 1013.0 |
| 20260507211419 | 26 | 350 | 6.4 | 16.1 | 0.00 | 0.10 | 0.10 | 67 | 1013.0 |
| 20260507211326 | 26 | 347 | 4.8 | 16.1 | 0.00 | 0.10 | 0.10 | 68 | 1013.0 |
| 20260507211218 | 26 | 15 | 1.6 | 16.1 | 0.00 | 0.10 | 0.10 | 68 | 1013.0 |
| 20260507211140 | 26 | 9 | 3.2 | 16.1 | 0.00 | 0.10 | 0.10 | 69 | 1013.1 |
| 20260507211036 | 26 | 10 | 6.4 | 16.1 | 0.00 | 0.10 | 0.10 | 68 | 1013.0 |
| 20260507210922 | 26 | 323 | 6.4 | 12.9 | 0.00 | 0.10 | 0.10 | 68 | 1013.0 |
| 20260507210836 | 26 | 15 | 6.4 | 12.9 | 0.00 | 0.10 | 0.10 | 68 | 1013.0 |
| 20260507210724 | 26 | 355 | 6.4 | 12.9 | 0.00 | 0.10 | 0.10 | 68 | 1013.1 |
| 20260507210640 | 26 | 5 | 4.8 | 12.9 | 0.00 | 0.10 | 0.10 | 68 | 1013.1 |
| 20260507210544 | 26 | 5 | 4.8 | 9.7 | 0.00 | 0.10 | 0.10 | 69 | 1013.1 |
| 20260507210430 | 26 | 32 | 4.8 | 12.9 | 0.00 | 0.10 | 0.10 | 68 | 1013.1 |
| 20260507210318 | 26 | 48 | 3.2 | 12.9 | 0.00 | 0.10 | 0.10 | 69 | 1013.1 |
| 20260507210218 | 25 | 5 | 4.8 | 17.7 | 0.00 | 0.10 | 0.10 | 69 | 1013.0 |
| 20260507210131 | 25 | 38 | 4.8 | 17.7 | 0.00 | 0.10 | 0.10 | 68 | 1013.0 |
| 20260507210025 | 25 | 45 | 4.8 | 17.7 | 0.00 | 0.10 | 0.10 | 68 | 1013.0 |
| 20260507205939 | 26 | 46 | 4.8 | 17.7 | 0.00 | 0.10 | 0.10 | 67 | 1013.0 |
| 20260507205826 | 26 | 45 | 4.8 | 17.7 | 0.00 | 0.10 | 0.10 | 68 | 1013.1 |
| 20260507205720 | 26 | 355 | 3.2 | 17.7 | 0.00 | 0.10 | 0.10 | 68 | 1013.0 |
| 20260507205630 | 26 | 355 | 4.8 | 17.7 | 0.00 | 0.10 | 0.10 | 68 | 1013.1 |
| 20260507205537 | 26 | 18 | 6.4 | 17.7 | 0.00 | 0.10 | 0.10 | 68 | 1013.1 |
| 20260507205443 | 26 | 5 | 8.0 | 17.7 | 0.00 | 0.10 | 0.10 | 68 | 1013.1 |
| 20260507205329 | 26 | 5 | 8.0 | 17.7 | 0.00 | 0.10 | 0.10 | 68 | 1013.0 |
| 20260507205242 | 26 | 29 | 6.4 | 9.7 | 0.00 | 0.10 | 0.10 | 68 | 1013.0 |
| 20260507205137 | 26 | 28 | 4.8 | 9.7 | 0.00 | 0.10 | 0.10 | 68 | 1013.0 |
| 20260507205039 | 26 | 10 | 3.2 | 9.7 | 0.00 | 0.10 | 0.10 | 70 | 1013.0 |
| 20260507204929 | 26 | 343 | 3.2 | 8.0 | 0.00 | 0.10 | 0.10 | 70 | 1013.0 |
| 20260507204843 | 25 | 343 | 1.6 | 12.9 | 0.00 | 0.10 | 0.10 | 70 | 1013.0 |
| 20260507204740 | 25 | 11 | 1.6 | 12.9 | 0.00 | 0.10 | 0.10 | 69 | 1013.0 |
| 20260507204652 | 25 | 11 | 1.6 | 12.9 | 0.00 | 0.10 | 0.10 | 69 | 1013.0 |
| 20260507204528 | 25 | 11 | 1.6 | 12.9 | 0.00 | 0.10 | 0.10 | 69 | 1013.1 |
| 20260507204434 | 25 | 360 | 3.2 | 12.9 | 0.00 | 0.10 | 0.10 | 69 | 1013.1 |
| 20260507204325 | 25 | 5 | 4.8 | 12.9 | 0.00 | 0.10 | 0.10 | 70 | 1013.1 |
| 20260507204224 | 25 | 36 | 4.8 | 12.9 | 0.00 | 0.10 | 0.10 | 69 | 1013.1 |
| 20260507204134 | 25 | 355 | 4.8 | 12.9 | 0.00 | 0.10 | 0.10 | 69 | 1013.1 |
| 20260507204030 | 25 | 23 | 3.2 | 12.9 | 0.00 | 0.10 | 0.10 | 69 | 1013.1 |
| 20260507203945 | 25 | 5 | 3.2 | 9.7 | 0.00 | 0.10 | 0.10 | 69 | 1013.1 |
| 20260507203831 | 25 | 41 | 3.2 | 9.7 | 0.00 | 0.10 | 0.10 | 69 | 1013.0 |
| 20260507203721 | 25 | 5 | 3.2 | 9.7 | 0.00 | 0.10 | 0.10 | 69 | 1013.1 |
| 20260507203637 | 25 | 5 | 4.8 | 9.7 | 0.00 | 0.10 | 0.10 | 70 | 1013.1 |
| 20260507203519 | 25 | 347 | 3.2 | 9.7 | 0.00 | 0.10 | 0.10 | 69 | 1013.1 |
| 20260507203425 | 25 | 350 | 3.2 | 8.0 | 0.00 | 0.10 | 0.10 | 70 | 1013.1 |
| 20260507203339 | 25 | 345 | 3.2 | 12.9 | 0.00 | 0.10 | 0.10 | 69 | 1013.2 |
| 20260507203219 | 25 | 342 | 4.8 | 12.9 | 0.00 | 0.10 | 0.10 | 68 | 1013.2 |
| 20260507203151 | 25 | 341 | 4.8 | 14.5 | 0.00 | 0.10 | 0.10 | 68 | 1013.2 |
| 20260507203026 | 25 | 330 | 3.2 | 14.5 | 0.00 | 0.10 | 0.10 | 68 | 1013.2 |
| 20260507202929 | 26 | 348 | 3.2 | 14.5 | 0.00 | 0.10 | 0.10 | 69 | 1013.2 |
| 20260507202844 | 26 | 32 | 3.2 | 14.5 | 0.00 | 0.10 | 0.10 | 69 | 1013.2 |
| 20260507202720 | 26 | 5 | 1.6 | 14.5 | 0.00 | 0.10 | 0.10 | 69 | 1013.2 |
| 20260507202630 | 26 | 5 | 3.2 | 14.5 | 0.00 | 0.10 | 0.10 | 69 | 1013.3 |
| 20260507202533 | 26 | 5 | 6.4 | 14.5 | 0.00 | 0.10 | 0.10 | 68 | 1013.3 |
| 20260507202419 | 26 | 355 | 6.4 | 14.5 | 0.00 | 0.10 | 0.10 | 68 | 1013.3 |
| 20260507202325 | 26 | 360 | 4.8 | 14.5 | 0.00 | 0.10 | 0.10 | 69 | 1013.3 |
| 20260507202222 | 26 | 355 | 3.2 | 12.9 | 0.00 | 0.10 | 0.10 | 70 | 1013.3 |
| 20260507202133 | 26 | 360 | 3.2 | 12.9 | 0.00 | 0.10 | 0.10 | 70 | 1013.3 |
| 20260507202034 | 25 | 360 | 4.8 | 12.9 | 0.00 | 0.10 | 0.10 | 70 | 1013.3 |
| 20260507201918 | 25 | 355 | 4.8 | 12.9 | 0.00 | 0.10 | 0.10 | 71 | 1013.3 |
| 20260507201831 | 25 | 49 | 3.2 | 12.9 | 0.00 | 0.10 | 0.10 | 70 | 1013.2 |
| 20260507201728 | 25 | 5 | 1.6 | 12.9 | 0.00 | 0.10 | 0.10 | 70 | 1013.2 |
| 20260507201639 | 25 | 40 | 1.6 | 12.9 | 0.00 | 0.10 | 0.10 | 70 | 1013.2 |
| 20260507201519 | 25 | 40 | 3.2 | 12.9 | 0.00 | 0.10 | 0.10 | 70 | 1013.2 |
| 20260507201426 | 25 | 40 | 4.8 | 12.9 | 0.00 | 0.10 | 0.10 | 71 | 1013.2 |
| 20260507201333 | 25 | 19 | 4.8 | 12.9 | 0.00 | 0.10 | 0.10 | 70 | 1013.3 |
| 20260507201219 | 25 | 21 | 4.8 | 12.9 | 0.00 | 0.10 | 0.10 | 69 | 1013.2 |
| 20260507201142 | 25 | 28 | 4.8 | 12.9 | 0.00 | 0.10 | 0.10 | 70 | 1013.2 |
| 20260507201021 | 25 | 5 | 3.2 | 8.0 | 0.00 | 0.10 | 0.10 | 69 | 1013.3 |
| 20260507200927 | 25 | 13 | 3.2 | 8.0 | 0.00 | 0.10 | 0.10 | 70 | 1013.3 |
| 20260507200821 | 25 | 17 | 4.8 | 8.0 | 0.00 | 0.10 | 0.10 | 70 | 1013.3 |
| 20260507200718 | 25 | 18 | 4.8 | 8.0 | 0.00 | 0.10 | 0.10 | 70 | 1013.2 |
| 20260507200651 | 25 | 5 | 3.2 | 14.5 | 0.00 | 0.10 | 0.10 | 70 | 1013.2 |
| 20260507200525 | 25 | 37 | 3.2 | 14.5 | 0.00 | 0.10 | 0.10 | 72 | 1013.2 |
| 20260507200436 | 25 | 38 | 4.8 | 14.5 | 0.00 | 0.10 | 0.10 | 70 | 1013.3 |
| 20260507200323 | 25 | 360 | 3.2 | 14.5 | 0.00 | 0.10 | 0.10 | 71 | 1013.3 |
| 20260507200225 | 25 | 344 | 3.2 | 14.5 | 0.00 | 0.10 | 0.10 | 71 | 1013.3 |
| 20260507200130 | 25 | 343 | 3.2 | 14.5 | 0.00 | 0.10 | 0.10 | 70 | 1013.3 |
| 20260507200052 | 25 | 342 | 4.8 | 14.5 | 0.00 | 0.10 | 0.10 | 71 | 1013.3 |
| 20260507195937 | 25 | 5 | 6.4 | 14.5 | 0.00 | 0.10 | 0.10 | 70 | 1013.4 |
| 20260507195855 | 25 | 360 | 8.0 | 14.5 | 0.00 | 0.10 | 0.10 | 70 | 1013.4 |
| 20260507195741 | 25 | 355 | 6.4 | 14.5 | 0.00 | 0.10 | 0.10 | 70 | 1013.4 |
| 20260507195726 | 25 | 5 | 6.4 | 14.5 | 0.00 | 0.10 | 0.10 | 71 | 1013.4 |
| 20260507195136 | 25 | 46 | 1.6 | 17.7 | 0.00 | 0.10 | 0.10 | 70 | 1013.5 |
| 20260507195032 | 25 | 47 | 4.8 | 17.7 | 0.00 | 0.10 | 0.10 | 70 | 1013.5 |
| 20260507194918 | 25 | 45 | 6.4 | 17.7 | 0.00 | 0.10 | 0.10 | 69 | 1013.5 |
| 20260507194831 | 25 | 344 | 6.4 | 17.7 | 0.00 | 0.10 | 0.10 | 69 | 1013.5 |
| 20260507194723 | 25 | 5 | 4.8 | 16.1 | 0.00 | 0.10 | 0.10 | 69 | 1013.5 |
| 20260507194707 | 25 | 5 | 4.8 | 16.1 | 0.00 | 0.10 | 0.10 | 71 | 1013.5 |
| 20260507194522 | 25 | 351 | 6.4 | 16.1 | 0.00 | 0.10 | 0.10 | 70 | 1013.5 |
| 20260507194427 | 25 | 351 | 6.4 | 16.1 | 0.00 | 0.10 | 0.10 | 70 | 1013.4 |
| 20260507194402 | 25 | 10 | 6.4 | 16.1 | 0.00 | 0.10 | 0.10 | 70 | 1013.4 |
| 20260507194218 | 25 | 5 | 8.0 | 16.1 | 0.00 | 0.10 | 0.10 | 70 | 1013.4 |
| 20260507194154 | 25 | 9 | 8.0 | 16.1 | 0.00 | 0.10 | 0.10 | 70 | 1013.4 |
| 20260507194050 | 25 | 29 | 6.4 | 16.1 | 0.00 | 0.10 | 0.10 | 69 | 1013.4 |
| 20260507193935 | 25 | 25 | 6.4 | 16.1 | 0.00 | 0.10 | 0.10 | 69 | 1013.4 |
| 20260507193822 | 25 | 360 | 8.0 | 16.1 | 0.00 | 0.10 | 0.10 | 70 | 1013.4 |
| 20260507193718 | 25 | 28 | 6.4 | 14.5 | 0.00 | 0.10 | 0.10 | 69 | 1013.4 |
| 20260507193651 | 25 | 17 | 6.4 | 14.5 | 0.00 | 0.10 | 0.10 | 71 | 1013.4 |
| 20260507193536 | 25 | 36 | 6.4 | 11.3 | 0.00 | 0.10 | 0.10 | 71 | 1013.4 |
| 20260507193421 | 25 | 49 | 4.8 | 9.7 | 0.00 | 0.10 | 0.10 | 70 | 1013.4 |
| 20260507193356 | 25 | 355 | 4.8 | 9.7 | 0.00 | 0.10 | 0.10 | 70 | 1013.4 |
| 20260507193241 | 25 | 20 | 4.8 | 9.7 | 0.00 | 0.10 | 0.10 | 70 | 1013.4 |
| 20260507193142 | 25 | 347 | 6.4 | 9.7 | 0.00 | 0.10 | 0.10 | 70 | 1013.4 |
| 20260507193018 | 25 | 360 | 6.4 | 9.7 | 0.00 | 0.10 | 0.10 | 71 | 1013.4 |
| 20260507192929 | 25 | 5 | 4.8 | 9.7 | 0.00 | 0.10 | 0.10 | 70 | 1013.4 |
| 20260507192837 | 25 | 345 | 4.8 | 9.7 | 0.00 | 0.10 | 0.10 | 70 | 1013.4 |
| 20260507192723 | 25 | 24 | 4.8 | 9.7 | 0.00 | 0.10 | 0.10 | 71 | 1013.5 |
| 20260507192707 | 25 | 30 | 3.2 | 9.7 | 0.00 | 0.10 | 0.10 | 71 | 1013.5 |
| 20260507192521 | 25 | 338 | 3.2 | 9.7 | 0.00 | 0.10 | 0.10 | 71 | 1013.5 |
| 20260507192435 | 25 | 26 | 3.2 | 9.7 | 0.00 | 0.10 | 0.10 | 70 | 1013.5 |
| 20260507192326 | 25 | 26 | 4.8 | 9.7 | 0.00 | 0.10 | 0.10 | 71 | 1013.5 |
| 20260507192243 | 25 | 24 | 4.8 | 9.7 | 0.00 | 0.10 | 0.10 | 71 | 1013.6 |
| 20260507192133 | 25 | 13 | 4.8 | 9.7 | 0.00 | 0.10 | 0.10 | 70 | 1013.7 |
| 20260507192033 | 25 | 30 | 4.8 | 9.7 | 0.00 | 0.10 | 0.10 | 70 | 1013.7 |
| 20260507191939 | 25 | 28 | 3.2 | 9.7 | 0.00 | 0.10 | 0.10 | 70 | 1013.7 |
| 20260507191825 | 25 | 344 | 1.6 | 9.7 | 0.00 | 0.10 | 0.10 | 70 | 1013.7 |
| 20260507191725 | 25 | 343 | 0.0 | 9.7 | 0.00 | 0.10 | 0.10 | 70 | 1013.8 |
| 20260507191637 | 25 | 343 | 1.6 | 9.7 | 0.00 | 0.10 | 0.10 | 70 | 1013.8 |
| 20260507191540 | 25 | 344 | 4.8 | 9.7 | 0.00 | 0.10 | 0.10 | 70 | 1013.9 |
| 20260507191446 | 25 | 342 | 6.4 | 9.7 | 0.00 | 0.10 | 0.10 | 70 | 1013.9 |
| 20260507191357 | 25 | 333 | 4.8 | 9.7 | 0.00 | 0.10 | 0.10 | 70 | 1013.8 |
| 20260507191224 | 25 | 44 | 6.4 | 14.5 | 0.00 | 0.10 | 0.10 | 70 | 1013.8 |
| 20260507191140 | 25 | 44 | 4.8 | 14.5 | 0.00 | 0.10 | 0.10 | 70 | 1013.8 |
| 20260507191019 | 25 | 34 | 3.2 | 14.5 | 0.00 | 0.10 | 0.10 | 70 | 1013.8 |
| 20260507190934 | 25 | 34 | 3.2 | 14.5 | 0.00 | 0.10 | 0.10 | 70 | 1013.9 |
| 20260507190821 | 25 | 32 | 4.8 | 14.5 | 0.00 | 0.10 | 0.10 | 70 | 1013.9 |
| 20260507190739 | 25 | 5 | 1.6 | 14.5 | 0.00 | 0.10 | 0.10 | 70 | 1013.9 |
| 20260507190631 | 25 | 11 | 1.6 | 14.5 | 0.00 | 0.10 | 0.10 | 70 | 1013.9 |
| 20260507190529 | 25 | 17 | 3.2 | 14.5 | 0.00 | 0.10 | 0.10 | 71 | 1013.9 |
| 20260507190421 | 25 | 17 | 4.8 | 14.5 | 0.00 | 0.10 | 0.10 | 70 | 1013.9 |
| 20260507190329 | 25 | 341 | 4.8 | 9.7 | 0.00 | 0.10 | 0.10 | 70 | 1013.9 |
| 20260507190225 | 25 | 5 | 4.8 | 9.7 | 0.00 | 0.10 | 0.10 | 70 | 1013.9 |
| 20260507190139 | 25 | 5 | 3.2 | 9.7 | 0.00 | 0.10 | 0.10 | 71 | 1013.9 |
| 20260507190033 | 25 | 355 | 1.6 | 9.7 | 0.00 | 0.10 | 0.10 | 71 | 1013.9 |
| 20260507185922 | 25 | 355 | 3.2 | 9.7 | 0.00 | 0.10 | 0.10 | 70 | 1013.9 |
| 20260507185836 | 25 | 355 | 3.2 | 9.7 | 0.00 | 0.10 | 0.10 | 70 | 1014.0 |
| 20260507185721 | 25 | 355 | 4.8 | 9.7 | 0.00 | 0.10 | 0.10 | 69 | 1014.0 |
| 20260507185637 | 25 | 355 | 4.8 | 9.7 | 0.00 | 0.10 | 0.10 | 70 | 1014.0 |
| 20260507185540 | 25 | 11 | 3.2 | 9.7 | 0.00 | 0.10 | 0.10 | 69 | 1014.0 |
| 20260507185430 | 25 | 5 | 3.2 | 9.7 | 0.00 | 0.10 | 0.10 | 70 | 1013.9 |
| 20260507185337 | 25 | 5 | 4.8 | 11.3 | 0.00 | 0.10 | 0.10 | 70 | 1014.0 |
| 20260507185224 | 25 | 360 | 3.2 | 9.7 | 0.00 | 0.10 | 0.10 | 70 | 1013.9 |
| 20260507185148 | 25 | 360 | 3.2 | 9.7 | 0.00 | 0.10 | 0.10 | 70 | 1014.0 |
| 20260507185041 | 25 | 360 | 3.2 | 12.9 | 0.00 | 0.10 | 0.10 | 70 | 1014.0 |
| 20260507184932 | 25 | 5 | 3.2 | 12.9 | 0.00 | 0.10 | 0.10 | 70 | 1014.0 |
| 20260507184905 | 25 | 11 | 3.2 | 12.9 | 0.00 | 0.10 | 0.10 | 70 | 1014.0 |
| 20260507184724 | 25 | 15 | 4.8 | 12.9 | 0.00 | 0.10 | 0.10 | 72 | 1014.0 |
| 20260507184629 | 25 | 350 | 4.8 | 12.9 | 0.00 | 0.10 | 0.10 | 72 | 1014.0 |
| 20260507184532 | 25 | 346 | 4.8 | 12.9 | 0.00 | 0.10 | 0.10 | 70 | 1013.9 |
| 20260507184418 | 25 | 344 | 4.8 | 12.9 | 0.00 | 0.10 | 0.10 | 70 | 1014.0 |
| 20260507184324 | 25 | 351 | 4.8 | 12.9 | 0.00 | 0.10 | 0.10 | 71 | 1014.1 |
| 20260507184223 | 25 | 22 | 4.8 | 12.9 | 0.00 | 0.10 | 0.10 | 71 | 1014.0 |
| 20260507184137 | 25 | 22 | 6.4 | 14.5 | 0.00 | 0.10 | 0.10 | 71 | 1014.0 |
| 20260507184031 | 25 | 5 | 6.4 | 14.5 | 0.00 | 0.10 | 0.10 | 71 | 1014.0 |
| 20260507183917 | 24 | 346 | 4.8 | 14.5 | 0.00 | 0.10 | 0.10 | 71 | 1014.0 |
| 20260507183831 | 24 | 31 | 4.8 | 14.5 | 0.00 | 0.10 | 0.10 | 71 | 1014.0 |
| 20260507183739 | 24 | 39 | 3.2 | 14.5 | 0.00 | 0.10 | 0.10 | 71 | 1014.0 |
| 20260507183705 | 24 | 15 | 4.8 | 14.5 | 0.00 | 0.10 | 0.10 | 71 | 1013.9 |
| 20260507183520 | 24 | 343 | 4.8 | 14.5 | 0.00 | 0.10 | 0.10 | 72 | 1013.9 |
| 20260507183426 | 24 | 355 | 4.8 | 14.5 | 0.00 | 0.10 | 0.10 | 71 | 1013.9 |
| 20260507183339 | 24 | 348 | 3.2 | 14.5 | 0.00 | 0.10 | 0.10 | 71 | 1013.9 |
| 20260507183226 | 24 | 308 | 3.2 | 9.7 | 0.00 | 0.10 | 0.10 | 71 | 1013.9 |
| 20260507183142 | 24 | 5 | 3.2 | 9.7 | 0.00 | 0.10 | 0.10 | 71 | 1013.9 |
| 20260507183048 | 24 | 360 | 4.8 | 9.7 | 0.00 | 0.10 | 0.10 | 71 | 1013.9 |
| 20260507182953 | 24 | 360 | 4.8 | 12.9 | 0.00 | 0.10 | 0.10 | 71 | 1013.9 |
| 20260507182818 | 25 | 360 | 6.4 | 12.9 | 0.00 | 0.10 | 0.10 | 70 | 1013.9 |
| 20260507182720 | 25 | 57 | 4.8 | 12.9 | 0.00 | 0.10 | 0.10 | 71 | 1013.9 |
| 20260507182654 | 25 | 344 | 4.8 | 12.9 | 0.00 | 0.10 | 0.10 | 71 | 1013.9 |
| 20260507182530 | 25 | 11 | 4.8 | 12.9 | 0.00 | 0.10 | 0.10 | 71 | 1013.9 |
| 20260507182419 | 25 | 24 | 1.6 | 12.9 | 0.00 | 0.10 | 0.10 | 71 | 1013.9 |
| 20260507182328 | 25 | 355 | 0.0 | 12.9 | 0.00 | 0.10 | 0.10 | 71 | 1013.9 |
| 20260507182244 | 25 | 355 | 1.6 | 12.9 | 0.00 | 0.10 | 0.10 | 71 | 1013.9 |
| 20260507182155 | 25 | 355 | 3.2 | 12.9 | 0.00 | 0.10 | 0.10 | 71 | 1014.0 |
| 20260507182036 | 25 | 347 | 3.2 | 12.9 | 0.00 | 0.10 | 0.10 | 70 | 1014.0 |
| 20260507181923 | 25 | 21 | 1.6 | 12.9 | 0.00 | 0.10 | 0.10 | 71 | 1014.1 |
| 20260507181834 | 25 | 36 | 1.6 | 12.9 | 0.00 | 0.10 | 0.10 | 71 | 1014.1 |
| 20260507181720 | 25 | 40 | 3.2 | 12.9 | 0.00 | 0.10 | 0.10 | 71 | 1014.1 |
| 20260507181644 | 25 | 40 | 3.2 | 12.9 | 0.00 | 0.10 | 0.10 | 70 | 1014.1 |
| 20260507181519 | 25 | 30 | 3.2 | 12.9 | 0.00 | 0.10 | 0.10 | 71 | 1014.1 |
| 20260507181424 | 25 | 17 | 4.8 | 12.9 | 0.00 | 0.10 | 0.10 | 71 | 1014.1 |
| 20260507181343 | 25 | 32 | 4.8 | 12.9 | 0.00 | 0.10 | 0.10 | 71 | 1014.1 |
| 20260507181229 | 25 | 17 | 4.8 | 12.9 | 0.00 | 0.10 | 0.10 | 71 | 1014.1 |
| 20260507181146 | 24 | 360 | 3.2 | 12.9 | 0.00 | 0.10 | 0.10 | 71 | 1014.0 |
| 20260507181022 | 25 | 355 | 1.6 | 12.9 | 0.00 | 0.10 | 0.10 | 71 | 1014.0 |
| 20260507180934 | 25 | 351 | 1.6 | 12.9 | 0.00 | 0.10 | 0.10 | 70 | 1014.0 |
| 20260507180820 | 25 | 22 | 4.8 | 12.9 | 0.00 | 0.10 | 0.10 | 70 | 1014.0 |
| 20260507180721 | 25 | 22 | 4.8 | 12.9 | 0.00 | 0.10 | 0.10 | 71 | 1014.0 |
| 20260507180633 | 25 | 24 | 3.2 | 12.9 | 0.00 | 0.10 | 0.10 | 71 | 1014.0 |
| 20260507180526 | 25 | 5 | 4.8 | 12.9 | 0.00 | 0.10 | 0.10 | 71 | 1013.9 |
| 20260507180440 | 25 | 5 | 6.4 | 12.9 | 0.00 | 0.10 | 0.10 | 71 | 1014.0 |
| 20260507180326 | 24 | 348 | 3.2 | 9.7 | 0.00 | 0.10 | 0.10 | 72 | 1013.9 |
| 20260507180227 | 24 | 13 | 1.6 | 9.7 | 0.00 | 0.10 | 0.10 | 72 | 1014.0 |
| 20260507180140 | 24 | 38 | 1.6 | 8.0 | 0.00 | 0.10 | 0.10 | 71 | 1014.0 |
| 20260507180034 | 24 | 38 | 1.6 | 8.0 | 0.00 | 0.10 | 0.10 | 71 | 1014.0 |
| 20260507175937 | 24 | 31 | 1.6 | 8.0 | 0.00 | 0.10 | 0.10 | 72 | 1014.0 |
| 20260507175828 | 24 | 30 | 1.6 | 8.0 | 0.00 | 0.10 | 0.10 | 72 | 1014.0 |
| 20260507175724 | 24 | 16 | 1.6 | 9.7 | 0.00 | 0.10 | 0.10 | 72 | 1014.0 |
| 20260507175640 | 24 | 14 | 1.6 | 9.7 | 0.00 | 0.10 | 0.10 | 72 | 1014.1 |
| 20260507175555 | 24 | 345 | 3.2 | 9.7 | 0.00 | 0.10 | 0.10 | 71 | 1014.1 |
| 20260507175420 | 24 | 342 | 3.2 | 9.7 | 0.00 | 0.10 | 0.10 | 71 | 1014.2 |
| 20260507175334 | 24 | 360 | 3.2 | 9.7 | 0.00 | 0.10 | 0.10 | 72 | 1014.3 |
| 20260507175242 | 24 | 25 | 3.2 | 9.7 | 0.00 | 0.10 | 0.10 | 72 | 1014.3 |
| 20260507175143 | 24 | 25 | 4.8 | 9.7 | 0.00 | 0.10 | 0.10 | 72 | 1014.3 |
| 20260507175023 | 23 | 9 | 3.2 | 9.7 | 0.00 | 0.10 | 0.10 | 72 | 1014.2 |
| 20260507174930 | 23 | 350 | 3.2 | 9.7 | 0.00 | 0.10 | 0.10 | 72 | 1014.3 |
| 20260507174845 | 23 | 342 | 1.6 | 9.7 | 0.00 | 0.10 | 0.10 | 73 | 1014.3 |
| 20260507174731 | 23 | 11 | 3.2 | 12.9 | 0.00 | 0.10 | 0.10 | 72 | 1014.3 |
| 20260507174648 | 23 | 11 | 3.2 | 12.9 | 0.00 | 0.10 | 0.10 | 72 | 1014.3 |
| 20260507174525 | 23 | 32 | 1.6 | 14.5 | 0.00 | 0.10 | 0.10 | 73 | 1014.2 |
| 20260507174439 | 23 | 33 | 1.6 | 14.5 | 0.00 | 0.10 | 0.10 | 72 | 1014.2 |
| 20260507174326 | 23 | 22 | 3.2 | 14.5 | 0.00 | 0.10 | 0.10 | 72 | 1014.2 |
| 20260507174221 | 23 | 35 | 4.8 | 14.5 | 0.00 | 0.10 | 0.10 | 72 | 1014.2 |
| 20260507174154 | 23 | 32 | 3.2 | 14.5 | 0.00 | 0.10 | 0.10 | 72 | 1014.2 |
| 20260507174028 | 23 | 27 | 3.2 | 14.5 | 0.00 | 0.10 | 0.10 | 72 | 1014.1 |
| 20260507173920 | 23 | 30 | 3.2 | 14.5 | 0.00 | 0.10 | 0.10 | 71 | 1014.2 |
| 20260507173826 | 23 | 30 | 4.8 | 14.5 | 0.00 | 0.10 | 0.10 | 72 | 1014.1 |
| 20260507173724 | 23 | 38 | 4.8 | 14.5 | 0.00 | 0.10 | 0.10 | 72 | 1014.2 |
| 20260507173635 | 23 | 30 | 4.8 | 14.5 | 0.00 | 0.10 | 0.10 | 73 | 1014.2 |
| 20260507173532 | 23 | 24 | 3.2 | 9.7 | 0.00 | 0.10 | 0.10 | 73 | 1014.2 |
| 20260507173423 | 23 | 22 | 1.6 | 12.9 | 0.00 | 0.10 | 0.10 | 73 | 1014.2 |
| 20260507173337 | 23 | 21 | 1.6 | 12.9 | 0.00 | 0.10 | 0.10 | 72 | 1014.2 |
| 20260507173243 | 23 | 21 | 1.6 | 12.9 | 0.00 | 0.10 | 0.10 | 72 | 1014.2 |
| 20260507173206 | 23 | 5 | 1.6 | 12.9 | 0.00 | 0.10 | 0.10 | 72 | 1014.3 |
| 20260507173020 | 23 | 5 | 3.2 | 12.9 | 0.00 | 0.10 | 0.10 | 73 | 1014.3 |
| 20260507172928 | 23 | 5 | 3.2 | 12.9 | 0.00 | 0.10 | 0.10 | 73 | 1014.4 |
| 20260507172819 | 23 | 355 | 3.2 | 12.9 | 0.00 | 0.10 | 0.10 | 73 | 1014.4 |
| 20260507172722 | 23 | 5 | 4.8 | 12.9 | 0.00 | 0.10 | 0.10 | 73 | 1014.4 |
| 20260507172646 | 23 | 345 | 4.8 | 12.9 | 0.00 | 0.10 | 0.10 | 74 | 1014.4 |
| 20260507172529 | 23 | 22 | 3.2 | 9.7 | 0.00 | 0.10 | 0.10 | 73 | 1014.4 |
| 20260507172436 | 23 | 19 | 3.2 | 9.7 | 0.00 | 0.10 | 0.10 | 72 | 1014.4 |
| 20260507172321 | 23 | 19 | 3.2 | 9.7 | 0.00 | 0.10 | 0.10 | 73 | 1014.5 |
| 20260507172248 | 23 | 32 | 3.2 | 9.7 | 0.00 | 0.10 | 0.10 | 73 | 1014.4 |
| 20260507172159 | 23 | 30 | 4.8 | 9.7 | 0.00 | 0.10 | 0.10 | 72 | 1014.5 |
| 20260507172052 | 23 | 52 | 3.2 | 9.7 | 0.00 | 0.10 | 0.10 | 72 | 1014.4 |
| 20260507171918 | 23 | 25 | 1.6 | 9.7 | 0.00 | 0.10 | 0.10 | 73 | 1014.5 |
| 20260507171852 | 23 | 24 | 1.6 | 9.7 | 0.00 | 0.10 | 0.10 | 76 | 1014.5 |
| 20260507171727 | 23 | 24 | 1.6 | 9.7 | 0.00 | 0.10 | 0.10 | 75 | 1014.5 |
| 20260507171639 | 23 | 25 | 1.6 | 9.7 | 0.00 | 0.10 | 0.10 | 74 | 1014.5 |
| 20260507171520 | 23 | 25 | 3.2 | 9.7 | 0.00 | 0.10 | 0.10 | 75 | 1014.5 |
| 20260507171426 | 23 | 25 | 3.2 | 9.7 | 0.00 | 0.10 | 0.10 | 75 | 1014.5 |
| 20260507171339 | 23 | 5 | 1.6 | 9.7 | 0.00 | 0.10 | 0.10 | 75 | 1014.5 |
| 20260507171224 | 23 | 13 | 1.6 | 9.7 | 0.00 | 0.10 | 0.10 | 77 | 1014.5 |
| 20260507171146 | 22 | 360 | 1.6 | 9.7 | 0.00 | 0.10 | 0.10 | 76 | 1014.5 |
| 20260507171026 | 22 | 355 | 3.2 | 11.3 | 0.00 | 0.10 | 0.10 | 75 | 1014.5 |
| 20260507170934 | 22 | 49 | 1.6 | 8.0 | 0.00 | 0.10 | 0.10 | 74 | 1014.5 |
| 20260507170821 | 22 | 49 | 4.8 | 8.0 | 0.00 | 0.10 | 0.10 | 74 | 1014.5 |
| 20260507170718 | 22 | 355 | 3.2 | 8.0 | 0.00 | 0.10 | 0.10 | 75 | 1014.5 |
| 20260507170630 | 22 | 346 | 3.2 | 8.0 | 0.00 | 0.10 | 0.10 | 75 | 1014.5 |
| 20260507170553 | 22 | 24 | 1.6 | 6.4 | 0.00 | 0.10 | 0.10 | 76 | 1014.5 |
| 20260507170420 | 22 | 38 | 0.0 | 6.4 | 0.00 | 0.10 | 0.10 | 76 | 1014.5 |
| 20260507170326 | 22 | 38 | 1.6 | 6.4 | 0.00 | 0.10 | 0.10 | 75 | 1014.4 |
| 20260507170224 | 22 | 38 | 3.2 | 6.4 | 0.00 | 0.10 | 0.10 | 76 | 1014.5 |
| 20260507170135 | 22 | 38 | 1.6 | 6.4 | 0.00 | 0.10 | 0.10 | 76 | 1014.4 |
| 20260507170030 | 22 | 37 | 3.2 | 6.4 | 0.00 | 0.10 | 0.10 | 76 | 1014.4 |
| 20260507165943 | 22 | 37 | 3.2 | 6.4 | 0.00 | 0.10 | 0.10 | 75 | 1014.4 |
| 20260507165833 | 22 | 33 | 1.6 | 9.7 | 0.00 | 0.10 | 0.10 | 76 | 1014.4 |
| 20260507165718 | 22 | 18 | 0.0 | 9.7 | 0.00 | 0.10 | 0.10 | 75 | 1014.4 |
| 20260507165640 | 22 | 27 | 0.0 | 9.7 | 0.00 | 0.10 | 0.10 | 75 | 1014.4 |
| 20260507165541 | 22 | 27 | 0.0 | 9.7 | 0.00 | 0.10 | 0.10 | 76 | 1014.4 |
| 20260507165428 | 22 | 27 | 1.6 | 9.7 | 0.00 | 0.10 | 0.10 | 76 | 1014.3 |
| 20260507165319 | 22 | 26 | 3.2 | 9.7 | 0.00 | 0.10 | 0.10 | 77 | 1014.3 |
| 20260507165217 | 22 | 26 | 1.6 | 9.7 | 0.00 | 0.10 | 0.10 | 78 | 1014.3 |
| 20260507165148 | 21 | 26 | 3.2 | 12.9 | 0.00 | 0.10 | 0.10 | 77 | 1014.3 |
| 20260507165024 | 21 | 26 | 4.8 | 12.9 | 0.00 | 0.10 | 0.10 | 77 | 1014.2 |
| 20260507164931 | 21 | 13 | 3.2 | 12.9 | 0.00 | 0.10 | 0.10 | 77 | 1014.2 |
| 20260507164818 | 21 | 18 | 1.6 | 12.9 | 0.00 | 0.10 | 0.10 | 76 | 1014.2 |
| 20260507164718 | 21 | 18 | 1.6 | 12.9 | 0.00 | 0.10 | 0.10 | 77 | 1014.2 |
| 20260507164631 | 21 | 18 | 3.2 | 17.7 | 0.00 | 0.10 | 0.10 | 77 | 1014.3 |
| 20260507164526 | 21 | 19 | 1.6 | 17.7 | 0.00 | 0.10 | 0.10 | 78 | 1014.4 |
| 20260507164440 | 21 | 19 | 4.8 | 17.7 | 0.00 | 0.10 | 0.10 | 78 | 1014.3 |
| 20260507164326 | 21 | 355 | 6.4 | 17.7 | 0.00 | 0.10 | 0.10 | 77 | 1014.3 |
| 20260507164237 | 21 | 5 | 4.8 | 17.7 | 0.00 | 0.10 | 0.10 | 78 | 1014.4 |
| 20260507164148 | 21 | 360 | 4.8 | 17.7 | 0.00 | 0.10 | 0.10 | 77 | 1014.4 |
| 20260507164022 | 21 | 5 | 4.8 | 17.7 | 0.00 | 0.10 | 0.10 | 78 | 1014.5 |
| 20260507163937 | 21 | 355 | 4.8 | 17.7 | 0.00 | 0.10 | 0.10 | 78 | 1014.5 |
| 20260507163824 | 21 | 26 | 6.4 | 17.7 | 0.00 | 0.10 | 0.10 | 78 | 1014.5 |
| 20260507163721 | 21 | 360 | 4.8 | 17.7 | 0.00 | 0.10 | 0.10 | 79 | 1014.5 |
| 20260507163636 | 21 | 21 | 3.2 | 9.7 | 0.00 | 0.10 | 0.10 | 78 | 1014.5 |
| 20260507163532 | 21 | 51 | 3.2 | 9.7 | 0.00 | 0.10 | 0.10 | 77 | 1014.6 |
| 20260507163419 | 21 | 51 | 4.8 | 9.7 | 0.00 | 0.10 | 0.10 | 77 | 1014.6 |
| 20260507163324 | 21 | 51 | 4.8 | 9.7 | 0.00 | 0.10 | 0.10 | 77 | 1014.6 |
| 20260507163249 | 21 | 40 | 4.8 | 9.7 | 0.00 | 0.10 | 0.10 | 77 | 1014.7 |
| 20260507163140 | 21 | 40 | 4.8 | 9.7 | 0.00 | 0.10 | 0.10 | 78 | 1014.7 |
| 20260507163039 | 21 | 9 | 4.8 | 9.7 | 0.00 | 0.10 | 0.10 | 78 | 1014.7 |
| 20260507162924 | 21 | 13 | 4.8 | 9.7 | 0.00 | 0.10 | 0.10 | 78 | 1014.8 |
| 20260507162837 | 21 | 12 | 4.8 | 9.7 | 0.00 | 0.10 | 0.10 | 79 | 1014.8 |
| 20260507162724 | 21 | 29 | 4.8 | 9.7 | 0.00 | 0.10 | 0.10 | 79 | 1014.8 |
| 20260507162640 | 20 | 31 | 3.2 | 9.7 | 0.00 | 0.10 | 0.10 | 79 | 1014.7 |
| 20260507162519 | 20 | 49 | 3.2 | 12.9 | 0.00 | 0.10 | 0.10 | 79 | 1014.8 |
| 20260507162433 | 20 | 55 | 3.2 | 17.7 | 0.00 | 0.10 | 0.10 | 78 | 1014.8 |
| 20260507162319 | 21 | 5 | 4.8 | 17.7 | 0.00 | 0.10 | 0.10 | 79 | 1014.8 |
| 20260507162218 | 20 | 355 | 3.2 | 17.7 | 0.00 | 0.10 | 0.10 | 79 | 1014.8 |
| 20260507162151 | 20 | 355 | 3.2 | 17.7 | 0.00 | 0.10 | 0.10 | 79 | 1014.8 |
| 20260507162027 | 20 | 18 | 1.6 | 17.7 | 0.00 | 0.10 | 0.10 | 81 | 1014.8 |
| 20260507161919 | 20 | 18 | 4.8 | 17.7 | 0.00 | 0.10 | 0.10 | 80 | 1014.8 |
| 20260507161827 | 20 | 26 | 6.4 | 17.7 | 0.00 | 0.10 | 0.10 | 79 | 1014.7 |
| 20260507161722 | 20 | 11 | 8.0 | 17.7 | 0.00 | 0.10 | 0.10 | 79 | 1014.7 |
| 20260507161655 | 20 | 342 | 8.0 | 17.7 | 0.00 | 0.10 | 0.10 | 79 | 1014.7 |
| 20260507161539 | 20 | 351 | 6.4 | 17.7 | 0.00 | 0.10 | 0.10 | 79 | 1014.7 |
| 20260507161445 | 20 | 342 | 4.8 | 12.9 | 0.00 | 0.10 | 0.10 | 79 | 1014.7 |
| 20260507161341 | 20 | 342 | 6.4 | 12.9 | 0.00 | 0.10 | 0.10 | 79 | 1014.7 |
| 20260507161218 | 20 | 5 | 6.4 | 12.9 | 0.00 | 0.10 | 0.10 | 79 | 1014.8 |
| 20260507161150 | 20 | 355 | 4.8 | 12.9 | 0.00 | 0.10 | 0.10 | 79 | 1014.8 |
| 20260507161026 | 20 | 9 | 3.2 | 9.7 | 0.00 | 0.10 | 0.10 | 79 | 1014.8 |
| 20260507160933 | 20 | 348 | 3.2 | 9.7 | 0.00 | 0.10 | 0.10 | 80 | 1014.8 |
| 20260507160824 | 20 | 355 | 4.8 | 9.7 | 0.00 | 0.10 | 0.10 | 79 | 1014.9 |
| 20260507160718 | 20 | 360 | 4.8 | 16.1 | 0.00 | 0.10 | 0.10 | 79 | 1014.9 |
| 20260507160629 | 20 | 332 | 4.8 | 16.1 | 0.00 | 0.10 | 0.10 | 79 | 1014.9 |
| 20260507160530 | 20 | 5 | 3.2 | 16.1 | 0.00 | 0.10 | 0.10 | 80 | 1014.8 |
| 20260507160436 | 20 | 9 | 1.6 | 16.1 | 0.00 | 0.10 | 0.10 | 80 | 1014.8 |
| 20260507160322 | 20 | 344 | 3.2 | 16.1 | 0.00 | 0.10 | 0.10 | 80 | 1014.8 |
| 20260507160223 | 20 | 342 | 4.8 | 16.1 | 0.00 | 0.10 | 0.10 | 80 | 1014.8 |
| 20260507160136 | 20 | 338 | 4.8 | 16.1 | 0.00 | 0.10 | 0.10 | 80 | 1014.8 |
| 20260507160029 | 20 | 21 | 6.4 | 16.1 | 0.00 | 0.10 | 0.10 | 80 | 1014.9 |
| 20260507155943 | 20 | 19 | 6.4 | 16.1 | 0.00 | 0.10 | 0.10 | 80 | 1014.9 |
| 20260507155851 | 20 | 344 | 3.2 | 11.3 | 0.00 | 0.10 | 0.10 | 80 | 1014.8 |
| 20260507155727 | 20 | 36 | 3.2 | 9.7 | 0.00 | 0.10 | 0.10 | 80 | 1014.9 |
| 20260507155643 | 20 | 36 | 3.2 | 9.7 | 0.00 | 0.10 | 0.10 | 80 | 1014.9 |
| 20260507155519 | 20 | 36 | 3.2 | 9.7 | 0.00 | 0.10 | 0.10 | 81 | 1015.0 |
| 20260507155423 | 20 | 9 | 3.2 | 9.7 | 0.00 | 0.10 | 0.10 | 81 | 1015.0 |
| 20260507155337 | 20 | 5 | 3.2 | 9.7 | 0.00 | 0.10 | 0.10 | 81 | 1015.1 |
| 20260507155224 | 20 | 11 | 1.6 | 11.3 | 0.00 | 0.10 | 0.10 | 81 | 1015.0 |
| 20260507155147 | 20 | 46 | 1.6 | 9.7 | 0.00 | 0.10 | 0.10 | 81 | 1015.1 |
| 20260507155026 | 20 | 46 | 4.8 | 12.9 | 0.00 | 0.10 | 0.10 | 81 | 1015.1 |
| 20260507154933 | 20 | 12 | 4.8 | 12.9 | 0.00 | 0.10 | 0.10 | 81 | 1015.1 |
| 20260507154820 | 20 | 355 | 1.6 | 14.5 | 0.00 | 0.10 | 0.10 | 81 | 1015.2 |
| 20260507154744 | 20 | 349 | 1.6 | 14.5 | 0.00 | 0.10 | 0.10 | 81 | 1015.2 |
| 20260507154628 | 20 | 351 | 3.2 | 14.5 | 0.00 | 0.10 | 0.10 | 81 | 1015.2 |
| 20260507154535 | 20 | 351 | 4.8 | 14.5 | 0.00 | 0.10 | 0.10 | 81 | 1015.2 |
| 20260507154421 | 20 | 355 | 4.8 | 14.5 | 0.00 | 0.10 | 0.10 | 81 | 1015.3 |
| 20260507154328 | 20 | 9 | 4.8 | 14.5 | 0.00 | 0.10 | 0.10 | 81 | 1015.3 |
| 20260507154218 | 20 | 5 | 6.4 | 14.5 | 0.00 | 0.10 | 0.10 | 81 | 1015.3 |
| 20260507154135 | 20 | 5 | 8.0 | 14.5 | 0.00 | 0.10 | 0.10 | 81 | 1015.2 |
| 20260507154056 | 20 | 360 | 4.8 | 14.5 | 0.00 | 0.10 | 0.10 | 81 | 1015.2 |
| 20260507153723 | 20 | 47 | 4.8 | 12.9 | 0.00 | 0.10 | 0.10 | 82 | 1015.0 |
| 20260507153638 | 20 | 48 | 3.2 | 12.9 | 0.00 | 0.10 | 0.10 | 82 | 1015.0 |
| 20260507153534 | 19 | 351 | 1.6 | 12.9 | 0.00 | 0.10 | 0.10 | 82 | 1015.0 |
| 20260507153421 | 19 | 42 | 3.2 | 12.9 | 0.00 | 0.10 | 0.10 | 82 | 1014.9 |
| 20260507153335 | 19 | 338 | 4.8 | 12.9 | 0.00 | 0.10 | 0.10 | 82 | 1015.0 |
| 20260507153222 | 19 | 345 | 6.4 | 12.9 | 0.00 | 0.10 | 0.10 | 82 | 1015.0 |
| 20260507153149 | 19 | 344 | 6.4 | 12.9 | 0.00 | 0.10 | 0.10 | 82 | 1015.0 |
| 20260507153025 | 19 | 25 | 4.8 | 12.9 | 0.00 | 0.10 | 0.10 | 82 | 1015.0 |
| 20260507152929 | 19 | 344 | 4.8 | 12.9 | 0.00 | 0.10 | 0.10 | 83 | 1015.0 |
| 20260507152841 | 19 | 340 | 4.8 | 12.9 | 0.00 | 0.10 | 0.10 | 83 | 1015.0 |
| 20260507152730 | 19 | 355 | 3.2 | 9.7 | 0.00 | 0.10 | 0.10 | 83 | 1015.0 |
| 20260507152645 | 19 | 348 | 4.8 | 9.7 | 0.00 | 0.10 | 0.10 | 83 | 1015.0 |
| 20260507152524 | 19 | 348 | 6.4 | 12.9 | 0.00 | 0.10 | 0.10 | 84 | 1014.9 |
| 20260507152437 | 19 | 348 | 4.8 | 12.9 | 0.00 | 0.10 | 0.10 | 84 | 1015.0 |
| 20260507152324 | 19 | 13 | 3.2 | 12.9 | 0.00 | 0.10 | 0.10 | 84 | 1015.0 |
| 20260507152240 | 19 | 46 | 4.8 | 12.9 | 0.00 | 0.10 | 0.10 | 85 | 1015.0 |
| 20260507152131 | 19 | 355 | 4.8 | 12.9 | 0.00 | 0.10 | 0.10 | 85 | 1015.0 |
| 20260507152028 | 19 | 355 | 4.8 | 12.9 | 0.00 | 0.10 | 0.10 | 85 | 1014.9 |
| 20260507151919 | 18 | 360 | 4.8 | 12.9 | 0.00 | 0.10 | 0.10 | 85 | 1014.9 |
| 20260507151833 | 18 | 11 | 4.8 | 12.9 | 0.00 | 0.10 | 0.10 | 85 | 1014.9 |
| 20260507151719 | 18 | 344 | 4.8 | 12.9 | 0.00 | 0.10 | 0.10 | 86 | 1015.0 |
| 20260507151635 | 18 | 346 | 3.2 | 12.9 | 0.00 | 0.10 | 0.10 | 86 | 1015.0 |
| 20260507151538 | 18 | 355 | 0.0 | 12.9 | 0.00 | 0.10 | 0.10 | 86 | 1014.9 |
| 20260507151428 | 18 | 350 | 0.0 | 12.9 | 0.00 | 0.10 | 0.10 | 86 | 1014.9 |
| 20260507151321 | 18 | 350 | 3.2 | 12.9 | 0.00 | 0.10 | 0.10 | 86 | 1014.8 |
| 20260507151217 | 18 | 350 | 4.8 | 12.9 | 0.00 | 0.10 | 0.10 | 86 | 1014.9 |
| 20260507151148 | 18 | 350 | 6.4 | 12.9 | 0.00 | 0.10 | 0.10 | 86 | 1014.8 |
| 20260507151025 | 18 | 350 | 1.6 | 12.9 | 0.00 | 0.10 | 0.10 | 86 | 1014.7 |
| 20260507150931 | 18 | 355 | 1.6 | 8.0 | 0.00 | 0.10 | 0.10 | 86 | 1014.8 |
| 20260507150823 | 18 | 355 | 1.6 | 8.0 | 0.00 | 0.10 | 0.10 | 86 | 1014.8 |
| 20260507150721 | 18 | 355 | 3.2 | 8.0 | 0.00 | 0.10 | 0.10 | 86 | 1014.8 |
| 20260507150654 | 18 | 355 | 1.6 | 8.0 | 0.00 | 0.10 | 0.10 | 86 | 1014.8 |
| 20260507150528 | 18 | 348 | 0.0 | 8.0 | 0.00 | 0.10 | 0.10 | 86 | 1014.8 |
| 20260507150442 | 18 | 348 | 1.6 | 8.0 | 0.00 | 0.10 | 0.10 | 86 | 1014.8 |
| 20260507150329 | 18 | 348 | 1.6 | 8.0 | 0.00 | 0.10 | 0.10 | 86 | 1014.8 |
| 20260507150239 | 18 | 343 | 3.2 | 8.0 | 0.00 | 0.10 | 0.10 | 86 | 1014.7 |
| 20260507150202 | 18 | 343 | 4.8 | 8.0 | 0.00 | 0.10 | 0.10 | 86 | 1014.7 |
| 20260507150036 | 18 | 360 | 4.8 | 8.0 | 0.00 | 0.10 | 0.10 | 86 | 1014.7 |
| 20260507145922 | 18 | 17 | 3.2 | 8.0 | 0.00 | 0.10 | 0.10 | 86 | 1014.7 |
| 20260507145835 | 18 | 349 | 0.0 | 6.4 | 0.00 | 0.10 | 0.10 | 86 | 1014.7 |
| 20260507145717 | 18 | 346 | 0.0 | 6.4 | 0.00 | 0.10 | 0.10 | 86 | 1014.8 |
| 20260507145648 | 18 | 346 | 0.0 | 6.4 | 0.00 | 0.10 | 0.10 | 86 | 1014.7 |
| 20260507145543 | 18 | 346 | 0.0 | 6.4 | 0.00 | 0.10 | 0.10 | 86 | 1014.7 |
| 20260507145428 | 18 | 346 | 0.0 | 6.4 | 0.00 | 0.10 | 0.10 | 86 | 1014.6 |
| 20260507145341 | 18 | 346 | 1.6 | 6.4 | 0.00 | 0.10 | 0.10 | 86 | 1014.6 |
| 20260507145217 | 18 | 346 | 3.2 | 6.4 | 0.00 | 0.10 | 0.10 | 86 | 1014.6 |
| 20260507145151 | 18 | 346 | 3.2 | 6.4 | 0.00 | 0.10 | 0.10 | 87 | 1014.7 |
| 20260507145031 | 18 | 9 | 0.0 | 3.2 | 0.00 | 0.10 | 0.10 | 87 | 1014.7 |
| 20260507144918 | 18 | 9 | 0.0 | 1.6 | 0.00 | 0.10 | 0.10 | 87 | 1014.7 |
| 20260507144826 | 18 | 9 | 0.0 | 1.6 | 0.00 | 0.10 | 0.10 | 87 | 1014.7 |
| 20260507144721 | 18 | 9 | 0.0 | 1.6 | 0.00 | 0.10 | 0.10 | 87 | 1014.7 |
| 20260507144633 | 18 | 9 | 0.0 | 1.6 | 0.00 | 0.10 | 0.10 | 86 | 1014.7 |
| 20260507144531 | 18 | 9 | 0.0 | 3.2 | 0.00 | 0.10 | 0.10 | 87 | 1014.6 |
| 20260507144443 | 18 | 9 | 0.0 | 3.2 | 0.00 | 0.10 | 0.10 | 87 | 1014.5 |
| 20260507144329 | 18 | 9 | 0.0 | 3.2 | 0.00 | 0.10 | 0.10 | 87 | 1014.6 |
| 20260507144220 | 18 | 9 | 0.0 | 4.8 | 0.00 | 0.10 | 0.10 | 87 | 1014.6 |
| 20260507144144 | 18 | 9 | 0.0 | 6.4 | 0.00 | 0.10 | 0.10 | 87 | 1014.6 |
| 20260507144019 | 18 | 9 | 0.0 | 6.4 | 0.00 | 0.10 | 0.10 | 86 | 1014.7 |
| 20260507143926 | 18 | 9 | 0.0 | 8.0 | 0.00 | 0.10 | 0.10 | 86 | 1014.7 |
| 20260507143817 | 18 | 9 | 0.0 | 8.0 | 0.00 | 0.10 | 0.10 | 86 | 1014.6 |
| 20260507143725 | 18 | 9 | 0.0 | 8.0 | 0.00 | 0.10 | 0.10 | 86 | 1014.6 |
| 20260507143647 | 18 | 9 | 0.0 | 8.0 | 0.00 | 0.10 | 0.10 | 86 | 1014.5 |
| 20260507143522 | 18 | 9 | 1.6 | 8.0 | 0.00 | 0.10 | 0.10 | 86 | 1014.5 |
| 20260507143430 | 18 | 9 | 3.2 | 8.0 | 0.00 | 0.10 | 0.10 | 86 | 1014.6 |
| 20260507143319 | 18 | 9 | 3.2 | 8.0 | 0.00 | 0.10 | 0.10 | 86 | 1014.6 |
| 20260507143222 | 18 | 9 | 3.2 | 8.0 | 0.00 | 0.10 | 0.10 | 86 | 1014.6 |
| 20260507143128 | 18 | 41 | 1.6 | 8.0 | 0.00 | 0.10 | 0.10 | 86 | 1014.6 |
| 20260507143030 | 18 | 41 | 0.0 | 8.0 | 0.00 | 0.10 | 0.10 | 86 | 1014.6 |
| 20260507142917 | 18 | 355 | 1.6 | 9.7 | 0.00 | 0.10 | 0.10 | 86 | 1014.6 |
| 20260507142829 | 18 | 355 | 3.2 | 9.7 | 0.00 | 0.10 | 0.10 | 86 | 1014.6 |
| 20260507142725 | 18 | 350 | 1.6 | 9.7 | 0.00 | 0.10 | 0.10 | 86 | 1014.6 |
| 20260507142636 | 18 | 360 | 1.6 | 9.7 | 0.00 | 0.10 | 0.10 | 86 | 1014.6 |
| 20260507142558 | 18 | 360 | 1.6 | 9.7 | 0.00 | 0.10 | 0.10 | 86 | 1014.6 |
| 20260507142424 | 18 | 360 | 1.6 | 9.7 | 0.00 | 0.10 | 0.10 | 86 | 1014.5 |
| 20260507142332 | 18 | 360 | 3.2 | 9.7 | 0.00 | 0.10 | 0.10 | 86 | 1014.5 |
| 20260507142220 | 18 | 5 | 3.2 | 9.7 | 0.00 | 0.10 | 0.10 | 87 | 1014.5 |
| 20260507142144 | 18 | 9 | 3.2 | 9.7 | 0.00 | 0.10 | 0.10 | 87 | 1014.5 |
| 20260507142020 | 18 | 5 | 0.0 | 9.7 | 0.00 | 0.10 | 0.10 | 86 | 1014.6 |
| 20260507141926 | 18 | 5 | 0.0 | 9.7 | 0.00 | 0.10 | 0.10 | 86 | 1014.7 |
| 20260507141832 | 18 | 5 | 3.2 | 9.7 | 0.00 | 0.10 | 0.10 | 86 | 1014.7 |
| 20260507141723 | 18 | 5 | 4.8 | 9.7 | 0.00 | 0.10 | 0.10 | 86 | 1014.7 |
| 20260507141646 | 18 | 5 | 4.8 | 9.7 | 0.00 | 0.10 | 0.10 | 86 | 1014.7 |
| 20260507141523 | 18 | 360 | 3.2 | 9.7 | 0.00 | 0.10 | 0.10 | 86 | 1014.6 |
| 20260507141428 | 18 | 360 | 1.6 | 9.7 | 0.00 | 0.10 | 0.10 | 86 | 1014.7 |
| 20260507141341 | 18 | 360 | 3.2 | 9.7 | 0.00 | 0.10 | 0.10 | 86 | 1014.6 |
| 20260507141220 | 18 | 360 | 3.2 | 9.7 | 0.00 | 0.10 | 0.10 | 86 | 1014.6 |
| 20260507141153 | 18 | 360 | 3.2 | 9.7 | 0.00 | 0.10 | 0.10 | 86 | 1014.6 |
| 20260507141028 | 18 | 360 | 0.0 | 8.0 | 0.00 | 0.10 | 0.10 | 86 | 1014.6 |
| 20260507140935 | 18 | 360 | 0.0 | 8.0 | 0.00 | 0.10 | 0.10 | 86 | 1014.7 |
| 20260507140822 | 18 | 360 | 0.0 | 8.0 | 0.00 | 0.10 | 0.10 | 86 | 1014.7 |
| 20260507140720 | 18 | 360 | 1.6 | 8.0 | 0.00 | 0.10 | 0.10 | 86 | 1014.7 |
| 20260507140635 | 18 | 360 | 3.2 | 8.0 | 0.00 | 0.10 | 0.10 | 86 | 1014.6 |
| 20260507140529 | 18 | 360 | 3.2 | 8.0 | 0.00 | 0.10 | 0.10 | 86 | 1014.7 |
| 20260507140442 | 18 | 360 | 1.6 | 6.4 | 0.00 | 0.10 | 0.10 | 86 | 1014.7 |
| 20260507140327 | 18 | 360 | 1.6 | 6.4 | 0.00 | 0.10 | 0.10 | 86 | 1014.7 |
| 20260507140245 | 18 | 360 | 3.2 | 16.1 | 0.00 | 0.10 | 0.10 | 86 | 1014.8 |
| 20260507140155 | 18 | 360 | 3.2 | 16.1 | 0.00 | 0.10 | 0.10 | 86 | 1014.8 |
| 20260507140038 | 18 | 360 | 0.0 | 16.1 | 0.00 | 0.10 | 0.10 | 86 | 1014.8 |
| 20260507135927 | 18 | 360 | 0.0 | 16.1 | 0.00 | 0.10 | 0.10 | 86 | 1014.8 |
| 20260507135842 | 18 | 360 | 0.0 | 16.1 | 0.00 | 0.10 | 0.10 | 86 | 1014.7 |
| 20260507135719 | 18 | 360 | 0.0 | 16.1 | 0.00 | 0.10 | 0.10 | 86 | 1014.8 |
| 20260507135640 | 18 | 360 | 0.0 | 16.1 | 0.00 | 0.10 | 0.10 | 86 | 1014.8 |
| 20260507135543 | 18 | 360 | 4.8 | 16.1 | 0.00 | 0.10 | 0.10 | 86 | 1014.8 |
| 20260507135427 | 18 | 360 | 4.8 | 16.1 | 0.00 | 0.10 | 0.10 | 86 | 1014.8 |
| 20260507135317 | 18 | 360 | 4.8 | 14.5 | 0.00 | 0.10 | 0.10 | 86 | 1014.8 |
| 20260507135230 | 18 | 351 | 4.8 | 9.7 | 0.00 | 0.10 | 0.10 | 86 | 1014.8 |
| 20260507135213 | 18 | 351 | 4.8 | 9.7 | 0.00 | 0.10 | 0.10 | 86 | 1014.8 |
| 20260507135028 | 18 | 5 | 1.6 | 8.0 | 0.00 | 0.10 | 0.10 | 86 | 1014.8 |
| 20260507134935 | 18 | 5 | 0.0 | 8.0 | 0.00 | 0.10 | 0.10 | 86 | 1014.9 |
| 20260507134822 | 18 | 5 | 0.0 | 8.0 | 0.00 | 0.10 | 0.10 | 86 | 1014.9 |
| 20260507134724 | 18 | 5 | 1.6 | 8.0 | 0.00 | 0.10 | 0.10 | 86 | 1015.0 |
| 20260507134634 | 18 | 5 | 3.2 | 8.0 | 0.00 | 0.10 | 0.10 | 86 | 1015.0 |
| 20260507134528 | 18 | 5 | 1.6 | 8.0 | 0.00 | 0.10 | 0.10 | 86 | 1015.0 |
| 20260507134442 | 18 | 5 | 3.2 | 8.0 | 0.00 | 0.10 | 0.10 | 86 | 1014.9 |
| 20260507134400 | 18 | 5 | 3.2 | 8.0 | 0.00 | 0.10 | 0.10 | 86 | 1014.9 |
| 20260507134024 | 18 | 355 | 1.6 | 9.7 | 0.00 | 0.10 | 0.10 | 86 | 1014.9 |
| 20260507133922 | 18 | 355 | 3.2 | 9.7 | 0.00 | 0.10 | 0.10 | 86 | 1014.9 |
| 20260507133828 | 18 | 355 | 3.2 | 9.7 | 0.00 | 0.10 | 0.10 | 86 | 1014.8 |
| 20260507133723 | 18 | 355 | 3.2 | 9.7 | 0.00 | 0.10 | 0.10 | 86 | 1014.8 |
| 20260507133634 | 18 | 328 | 1.6 | 9.7 | 0.00 | 0.10 | 0.10 | 86 | 1014.8 |
| 20260507133531 | 18 | 327 | 3.2 | 9.7 | 0.00 | 0.10 | 0.10 | 86 | 1014.7 |
| 20260507133420 | 18 | 355 | 3.2 | 9.7 | 0.00 | 0.10 | 0.10 | 86 | 1014.7 |
| 20260507133353 | 18 | 346 | 3.2 | 9.7 | 0.00 | 0.10 | 0.10 | 86 | 1014.6 |
| 20260507133227 | 18 | 347 | 4.8 | 9.7 | 0.00 | 0.10 | 0.10 | 86 | 1014.6 |
| 20260507133140 | 18 | 346 | 4.8 | 14.5 | 0.00 | 0.10 | 0.10 | 86 | 1014.6 |
| 20260507133036 | 18 | 342 | 4.8 | 14.5 | 0.00 | 0.10 | 0.10 | 86 | 1014.6 |
| 20260507132921 | 18 | 345 | 1.6 | 14.5 | 0.00 | 0.10 | 0.10 | 86 | 1014.6 |
| 20260507132838 | 18 | 345 | 1.6 | 14.5 | 0.00 | 0.10 | 0.10 | 86 | 1014.5 |
| 20260507132724 | 18 | 342 | 1.6 | 14.5 | 0.00 | 0.10 | 0.10 | 86 | 1014.5 |
| 20260507132640 | 18 | 342 | 4.8 | 14.5 | 0.00 | 0.10 | 0.10 | 86 | 1014.5 |
| 20260507132542 | 18 | 41 | 4.8 | 14.5 | 0.00 | 0.10 | 0.10 | 86 | 1014.5 |
| 20260507132429 | 18 | 355 | 6.4 | 14.5 | 0.00 | 0.10 | 0.10 | 86 | 1014.5 |
| 20260507132319 | 18 | 350 | 6.4 | 14.5 | 0.00 | 0.10 | 0.10 | 86 | 1014.5 |
| 20260507132217 | 18 | 360 | 4.8 | 14.5 | 0.00 | 0.10 | 0.10 | 86 | 1014.4 |
| 20260507132149 | 18 | 11 | 4.8 | 14.5 | 0.00 | 0.10 | 0.10 | 86 | 1014.4 |
| 20260507132023 | 18 | 360 | 3.2 | 14.5 | 0.00 | 0.10 | 0.10 | 86 | 1014.4 |
| 20260507131931 | 18 | 340 | 1.6 | 14.5 | 0.00 | 0.10 | 0.10 | 86 | 1014.3 |
| 20260507131818 | 18 | 339 | 3.2 | 14.5 | 0.00 | 0.10 | 0.10 | 86 | 1014.3 |
| 20260507131720 | 18 | 339 | 4.8 | 14.5 | 0.00 | 0.10 | 0.10 | 86 | 1014.3 |
| 20260507131632 | 18 | 355 | 4.8 | 14.5 | 0.00 | 0.10 | 0.10 | 86 | 1014.3 |
| 20260507131526 | 18 | 355 | 4.8 | 14.5 | 0.00 | 0.10 | 0.10 | 86 | 1014.3 |
| 20260507131440 | 18 | 351 | 6.4 | 14.5 | 0.00 | 0.10 | 0.10 | 86 | 1014.3 |
| 20260507131347 | 18 | 350 | 8.0 | 14.5 | 0.00 | 0.10 | 0.10 | 86 | 1014.2 |
| 20260507131226 | 18 | 355 | 6.4 | 12.9 | 0.00 | 0.10 | 0.10 | 86 | 1014.2 |
| 20260507131137 | 18 | 355 | 3.2 | 12.9 | 0.00 | 0.10 | 0.10 | 86 | 1014.2 |
| 20260507131040 | 18 | 348 | 3.2 | 12.9 | 0.00 | 0.10 | 0.10 | 86 | 1014.2 |
| 20260507130919 | 18 | 347 | 3.2 | 12.9 | 0.00 | 0.10 | 0.10 | 86 | 1014.2 |
| 20260507130852 | 18 | 351 | 3.2 | 12.9 | 0.00 | 0.10 | 0.10 | 86 | 1014.2 |
| 20260507130726 | 18 | 355 | 3.2 | 12.9 | 0.00 | 0.10 | 0.10 | 86 | 1014.2 |
| 20260507130640 | 18 | 355 | 3.2 | 12.9 | 0.00 | 0.10 | 0.10 | 86 | 1014.1 |
| 20260507130546 | 18 | 355 | 4.8 | 12.9 | 0.00 | 0.10 | 0.10 | 86 | 1014.2 |
| 20260507130431 | 18 | 355 | 6.4 | 12.9 | 0.00 | 0.10 | 0.10 | 86 | 1014.2 |
| 20260507130317 | 18 | 360 | 4.8 | 12.9 | 0.00 | 0.10 | 0.10 | 86 | 1014.3 |
| 20260507130249 | 18 | 360 | 3.2 | 12.9 | 0.00 | 0.10 | 0.10 | 86 | 1014.2 |
| 20260507130146 | 18 | 360 | 3.2 | 12.9 | 0.00 | 0.10 | 0.10 | 86 | 1014.3 |
| 20260507130025 | 18 | 360 | 4.8 | 12.9 | 0.00 | 0.10 | 0.10 | 86 | 1014.4 |
| 20260507125938 | 18 | 5 | 4.8 | 12.9 | 0.00 | 0.10 | 0.10 | 86 | 1014.3 |
| 20260507125824 | 18 | 5 | 4.8 | 12.9 | 0.00 | 0.10 | 0.10 | 86 | 1014.4 |
| 20260507125741 | 18 | 9 | 4.8 | 9.7 | 0.00 | 0.10 | 0.10 | 86 | 1014.4 |
| 20260507125631 | 18 | 10 | 4.8 | 9.7 | 0.00 | 0.10 | 0.10 | 86 | 1014.4 |
| 20260507125526 | 18 | 360 | 1.6 | 9.7 | 0.00 | 0.10 | 0.10 | 86 | 1014.4 |
| 20260507125416 | 18 | 360 | 1.6 | 12.9 | 0.00 | 0.10 | 0.10 | 86 | 1014.4 |
| 20260507125329 | 18 | 360 | 4.8 | 12.9 | 0.00 | 0.10 | 0.10 | 86 | 1014.3 |
| 20260507125245 | 18 | 360 | 4.8 | 12.9 | 0.00 | 0.10 | 0.10 | 86 | 1014.3 |
| 20260507125137 | 18 | 360 | 4.8 | 12.9 | 0.00 | 0.10 | 0.10 | 86 | 1014.2 |
| 20260507125033 | 18 | 339 | 3.2 | 12.9 | 0.00 | 0.10 | 0.10 | 86 | 1014.3 |
| 20260507124927 | 18 | 14 | 3.2 | 12.9 | 0.00 | 0.10 | 0.10 | 86 | 1014.2 |
| 20260507124837 | 18 | 15 | 3.2 | 12.9 | 0.00 | 0.10 | 0.10 | 86 | 1014.2 |
| 20260507124751 | 18 | 15 | 4.8 | 12.9 | 0.00 | 0.10 | 0.10 | 86 | 1014.2 |
| 20260507124714 | 18 | 15 | 6.4 | 12.9 | 0.00 | 0.10 | 0.10 | 86 | 1014.2 |
| 20260507124528 | 18 | 360 | 3.2 | 12.9 | 0.00 | 0.10 | 0.10 | 86 | 1014.2 |
| 20260507124434 | 18 | 338 | 1.6 | 12.9 | 0.00 | 0.10 | 0.10 | 86 | 1014.2 |
| 20260507124320 | 18 | 338 | 4.8 | 14.5 | 0.00 | 0.10 | 0.10 | 86 | 1014.2 |
| 20260507124253 | 18 | 338 | 3.2 | 14.5 | 0.00 | 0.10 | 0.10 | 86 | 1014.2 |
| 20260507124133 | 18 | 336 | 1.6 | 14.5 | 0.00 | 0.10 | 0.10 | 86 | 1014.3 |
| 20260507124036 | 18 | 348 | 1.6 | 14.5 | 0.00 | 0.10 | 0.10 | 86 | 1014.3 |
| 20260507123920 | 18 | 348 | 4.8 | 14.5 | 0.00 | 0.10 | 0.10 | 86 | 1014.2 |
| 20260507123832 | 18 | 360 | 3.2 | 14.5 | 0.00 | 0.10 | 0.10 | 86 | 1014.2 |
| 20260507123727 | 18 | 20 | 3.2 | 14.5 | 0.00 | 0.10 | 0.10 | 86 | 1014.1 |
| 20260507123631 | 18 | 355 | 6.4 | 14.5 | 0.00 | 0.10 | 0.10 | 86 | 1014.1 |
| 20260507123538 | 18 | 351 | 6.4 | 14.5 | 0.00 | 0.10 | 0.10 | 86 | 1014.1 |
| 20260507123423 | 18 | 5 | 4.8 | 8.0 | 0.00 | 0.10 | 0.10 | 86 | 1014.1 |
| 20260507123357 | 18 | 351 | 3.2 | 8.0 | 0.00 | 0.10 | 0.10 | 86 | 1014.1 |
| 20260507123223 | 18 | 348 | 1.6 | 8.0 | 0.00 | 0.10 | 0.10 | 86 | 1014.2 |
| 20260507123145 | 18 | 347 | 0.0 | 8.0 | 0.00 | 0.10 | 0.10 | 86 | 1014.2 |
| 20260507123040 | 18 | 347 | 0.0 | 9.7 | 0.00 | 0.10 | 0.10 | 86 | 1014.1 |
| 20260507122924 | 18 | 347 | 1.6 | 9.7 | 0.00 | 0.10 | 0.10 | 86 | 1014.1 |
| 20260507122840 | 18 | 347 | 1.6 | 9.7 | 0.00 | 0.10 | 0.10 | 86 | 1014.1 |
| 20260507122718 | 18 | 347 | 3.2 | 9.7 | 0.00 | 0.10 | 0.10 | 86 | 1014.0 |
| 20260507122642 | 18 | 347 | 4.8 | 12.9 | 0.00 | 0.10 | 0.10 | 86 | 1013.9 |
| 20260507122545 | 18 | 347 | 4.8 | 12.9 | 0.00 | 0.10 | 0.10 | 86 | 1013.9 |
| 20260507122430 | 18 | 347 | 4.8 | 12.9 | 0.00 | 0.10 | 0.10 | 86 | 1014.0 |
| 20260507122320 | 18 | 344 | 3.2 | 12.9 | 0.00 | 0.10 | 0.10 | 86 | 1014.0 |
| 20260507122217 | 18 | 342 | 3.2 | 12.9 | 0.00 | 0.10 | 0.10 | 86 | 1014.0 |
| 20260507122149 | 18 | 342 | 4.8 | 12.9 | 0.00 | 0.10 | 0.10 | 86 | 1013.9 |
| 20260507122032 | 18 | 351 | 4.8 | 12.9 | 0.00 | 0.10 | 0.10 | 86 | 1013.9 |
| 20260507121918 | 18 | 355 | 4.8 | 12.9 | 0.00 | 0.10 | 0.10 | 86 | 1013.9 |
| 20260507121845 | 18 | 355 | 3.2 | 12.9 | 0.00 | 0.10 | 0.10 | 86 | 1013.9 |
| 20260507121717 | 18 | 348 | 3.2 | 9.7 | 0.00 | 0.10 | 0.10 | 86 | 1013.9 |
| 20260507121636 | 18 | 348 | 3.2 | 9.7 | 0.00 | 0.10 | 0.10 | 86 | 1013.8 |
| 20260507121540 | 18 | 348 | 3.2 | 9.7 | 0.00 | 0.10 | 0.10 | 86 | 1013.8 |
| 20260507121444 | 18 | 348 | 4.8 | 9.7 | 0.00 | 0.10 | 0.10 | 86 | 1013.8 |
| 20260507121337 | 19 | 5 | 4.8 | 9.7 | 0.00 | 0.10 | 0.10 | 86 | 1013.8 |
| 20260507121224 | 19 | 15 | 6.4 | 11.3 | 0.00 | 0.10 | 0.10 | 86 | 1013.8 |
| 20260507121138 | 19 | 9 | 4.8 | 9.7 | 0.00 | 0.10 | 0.10 | 86 | 1013.8 |
| 20260507121017 | 19 | 341 | 3.2 | 9.7 | 0.00 | 0.10 | 0.10 | 86 | 1013.7 |
| 20260507120931 | 19 | 340 | 3.2 | 9.7 | 0.00 | 0.10 | 0.10 | 86 | 1013.7 |
| 20260507120857 | 19 | 340 | 4.8 | 9.7 | 0.00 | 0.10 | 0.10 | 86 | 1013.7 |
| 20260507120722 | 19 | 344 | 3.2 | 9.7 | 0.00 | 0.10 | 0.10 | 86 | 1013.7 |
| 20260507120645 | 19 | 344 | 1.6 | 9.7 | 0.00 | 0.10 | 0.10 | 86 | 1013.7 |
| 20260507120520 | 19 | 344 | 0.0 | 9.7 | 0.00 | 0.10 | 0.10 | 86 | 1013.7 |
| 20260507120436 | 19 | 344 | 0.0 | 9.7 | 0.00 | 0.10 | 0.10 | 86 | 1013.7 |
| 20260507120345 | 19 | 344 | 1.6 | 9.7 | 0.00 | 0.10 | 0.10 | 86 | 1013.6 |
| 20260507120220 | 19 | 344 | 3.2 | 9.7 | 0.00 | 0.10 | 0.10 | 86 | 1013.6 |
| 20260507120133 | 19 | 344 | 3.2 | 9.7 | 0.00 | 0.10 | 0.10 | 86 | 1013.5 |
| 20260507120027 | 19 | 331 | 3.2 | 9.7 | 0.00 | 0.10 | 0.10 | 86 | 1013.6 |
| 20260507115916 | 19 | 5 | 3.2 | 9.7 | 0.00 | 0.10 | 0.10 | 86 | 1013.5 |
| 20260507115830 | 19 | 9 | 3.2 | 9.7 | 0.00 | 0.10 | 0.10 | 86 | 1013.5 |
| 20260507115725 | 19 | 5 | 3.2 | 9.7 | 0.00 | 0.10 | 0.10 | 86 | 1013.5 |
| 20260507115659 | 19 | 344 | 3.2 | 9.7 | 0.00 | 0.10 | 0.10 | 86 | 1013.5 |
| 20260507115532 | 19 | 344 | 4.8 | 9.7 | 0.00 | 0.10 | 0.10 | 86 | 1013.4 |
| 20260507115446 | 19 | 351 | 4.8 | 9.7 | 0.00 | 0.10 | 0.10 | 86 | 1013.4 |
| 20260507115329 | 19 | 347 | 3.2 | 9.7 | 0.00 | 0.10 | 0.10 | 86 | 1013.4 |
| 20260507115248 | 19 | 350 | 1.6 | 9.7 | 0.00 | 0.10 | 0.10 | 86 | 1013.4 |
| 20260507115145 | 19 | 350 | 1.6 | 9.7 | 0.00 | 0.10 | 0.10 | 86 | 1013.3 |
| 20260507115019 | 19 | 350 | 1.6 | 9.7 | 0.03 | 0.10 | 0.10 | 86 | 1013.3 |
| 20260507114933 | 19 | 350 | 3.2 | 9.7 | 0.03 | 0.10 | 0.10 | 86 | 1013.3 |
| 20260507114820 | 19 | 355 | 3.2 | 8.0 | 0.03 | 0.10 | 0.10 | 86 | 1013.2 |
| 20260507114719 | 19 | 355 | 3.2 | 8.0 | 0.03 | 0.10 | 0.10 | 86 | 1013.1 |
| 20260507114651 | 19 | 355 | 1.6 | 8.0 | 0.03 | 0.10 | 0.10 | 86 | 1013.1 |
| 20260507114527 | 19 | 350 | 0.0 | 8.0 | 0.03 | 0.10 | 0.10 | 86 | 1013.1 |
| 20260507114433 | 19 | 350 | 1.6 | 8.0 | 0.03 | 0.10 | 0.10 | 86 | 1013.0 |
| 20260507114321 | 19 | 350 | 1.6 | 8.0 | 0.03 | 0.10 | 0.10 | 86 | 1013.0 |
| 20260507114217 | 19 | 350 | 1.6 | 8.0 | 0.03 | 0.10 | 0.10 | 86 | 1012.9 |
| 20260507114132 | 19 | 350 | 1.6 | 8.0 | 0.03 | 0.10 | 0.10 | 86 | 1012.9 |
| 20260507114025 | 20 | 349 | 1.6 | 8.0 | 0.03 | 0.10 | 0.10 | 86 | 1012.9 |
| 20260507113918 | 20 | 349 | 3.2 | 8.0 | 0.03 | 0.10 | 0.10 | 85 | 1013.0 |
| 20260507113825 | 20 | 349 | 3.2 | 8.0 | 0.03 | 0.10 | 0.10 | 85 | 1012.9 |
| 20260507113722 | 20 | 18 | 3.2 | 8.0 | 0.03 | 0.10 | 0.10 | 85 | 1012.9 |
| 20260507113633 | 20 | 31 | 3.2 | 9.7 | 0.03 | 0.10 | 0.10 | 86 | 1012.8 |
| 20260507113601 | 20 | 11 | 1.6 | 9.7 | 0.03 | 0.10 | 0.10 | 86 | 1012.9 |
| 20260507113425 | 20 | 10 | 1.6 | 9.7 | 0.03 | 0.10 | 0.10 | 86 | 1012.9 |
| 20260507113359 | 20 | 10 | 1.6 | 9.7 | 0.03 | 0.10 | 0.10 | 86 | 1012.9 |
| 20260507113242 | 20 | 10 | 0.0 | 9.7 | 0.03 | 0.10 | 0.10 | 86 | 1012.9 |
| 20260507113143 | 20 | 9 | 0.0 | 9.7 | 0.03 | 0.10 | 0.10 | 86 | 1013.0 |
| 20260507113018 | 20 | 10 | 3.2 | 9.7 | 0.03 | 0.10 | 0.10 | 86 | 1012.9 |
| 20260507112943 | 20 | 10 | 4.8 | 9.7 | 0.03 | 0.10 | 0.10 | 86 | 1012.9 |
| 20260507112840 | 20 | 10 | 6.4 | 9.7 | 0.03 | 0.10 | 0.10 | 85 | 1012.9 |
| 20260507112726 | 20 | 15 | 6.4 | 11.3 | 0.03 | 0.10 | 0.10 | 85 | 1012.9 |
| 20260507112647 | 20 | 360 | 6.4 | 9.7 | 0.03 | 0.10 | 0.10 | 85 | 1012.8 |
| 20260507112541 | 20 | 355 | 4.8 | 9.7 | 0.03 | 0.10 | 0.10 | 85 | 1012.8 |
| 20260507112454 | 20 | 10 | 4.8 | 9.7 | 0.03 | 0.10 | 0.10 | 85 | 1012.8 |
| 20260507112319 | 20 | 27 | 4.8 | 9.7 | 0.03 | 0.10 | 0.10 | 85 | 1012.8 |
| 20260507112219 | 20 | 355 | 4.8 | 9.7 | 0.03 | 0.10 | 0.10 | 86 | 1012.8 |
| 20260507112152 | 20 | 355 | 4.8 | 9.7 | 0.03 | 0.10 | 0.10 | 86 | 1012.8 |
| 20260507112028 | 20 | 355 | 4.8 | 9.7 | 0.03 | 0.10 | 0.10 | 86 | 1012.8 |
| 20260507111934 | 20 | 355 | 4.8 | 9.7 | 0.03 | 0.10 | 0.10 | 86 | 1012.7 |
| 20260507111848 | 20 | 338 | 4.8 | 9.7 | 0.03 | 0.10 | 0.10 | 86 | 1012.7 |
| 20260507111724 | 20 | 350 | 4.8 | 9.7 | 0.03 | 0.10 | 0.10 | 86 | 1012.7 |
| 20260507111641 | 20 | 5 | 3.2 | 9.7 | 0.03 | 0.10 | 0.10 | 85 | 1012.6 |
| 20260507111534 | 20 | 9 | 3.2 | 11.3 | 0.03 | 0.10 | 0.10 | 85 | 1012.6 |
| 20260507111439 | 20 | 348 | 3.2 | 6.4 | 0.03 | 0.10 | 0.10 | 85 | 1012.5 |
| 20260507111333 | 20 | 347 | 3.2 | 6.4 | 0.03 | 0.10 | 0.10 | 85 | 1012.6 |
| 20260507111219 | 20 | 348 | 0.0 | 9.7 | 0.03 | 0.10 | 0.10 | 85 | 1012.5 |
| 20260507111136 | 20 | 347 | 0.0 | 9.7 | 0.03 | 0.10 | 0.10 | 85 | 1012.6 |
| 20260507111042 | 20 | 347 | 0.0 | 9.7 | 0.03 | 0.10 | 0.10 | 85 | 1012.6 |
| 20260507110927 | 20 | 347 | 0.0 | 9.7 | 0.03 | 0.10 | 0.10 | 85 | 1012.6 |
| 20260507110901 | 20 | 347 | 0.0 | 9.7 | 0.03 | 0.10 | 0.10 | 85 | 1012.7 |
| 20260507110717 | 20 | 347 | 0.0 | 9.7 | 0.03 | 0.10 | 0.10 | 85 | 1012.7 |
| 20260507110642 | 20 | 347 | 0.0 | 9.7 | 0.03 | 0.10 | 0.10 | 85 | 1012.6 |
| 20260507110518 | 20 | 347 | 1.6 | 9.7 | 0.03 | 0.10 | 0.10 | 85 | 1012.6 |
| 20260507110454 | 20 | 347 | 3.2 | 9.7 | 0.03 | 0.10 | 0.10 | 85 | 1012.6 |
| 20260507110327 | 20 | 345 | 3.2 | 9.7 | 0.03 | 0.10 | 0.10 | 85 | 1012.6 |
| 20260507110223 | 20 | 9 | 3.2 | 9.7 | 0.03 | 0.10 | 0.10 | 85 | 1012.6 |
| 20260507110128 | 20 | 342 | 3.2 | 11.3 | 0.03 | 0.10 | 0.10 | 85 | 1012.6 |
| 20260507110030 | 20 | 350 | 3.2 | 9.7 | 0.03 | 0.10 | 0.10 | 85 | 1012.6 |
| 20260507105917 | 21 | 338 | 3.2 | 16.1 | 0.03 | 0.10 | 0.10 | 85 | 1012.6 |
| 20260507105828 | 21 | 348 | 3.2 | 16.1 | 0.03 | 0.10 | 0.10 | 85 | 1012.5 |
| 20260507105724 | 21 | 348 | 1.6 | 16.1 | 0.03 | 0.10 | 0.10 | 85 | 1012.5 |
| 20260507105636 | 21 | 348 | 1.6 | 16.1 | 0.03 | 0.10 | 0.10 | 85 | 1012.4 |
| 20260507105540 | 21 | 348 | 1.6 | 16.1 | 0.03 | 0.10 | 0.10 | 85 | 1012.4 |
| 20260507105418 | 21 | 345 | 3.2 | 16.1 | 0.03 | 0.10 | 0.10 | 85 | 1012.3 |
| 20260507105329 | 21 | 344 | 3.2 | 16.1 | 0.03 | 0.10 | 0.10 | 85 | 1012.4 |
| 20260507105225 | 21 | 355 | 3.2 | 16.1 | 0.03 | 0.10 | 0.10 | 85 | 1012.4 |
| 20260507105141 | 21 | 355 | 4.8 | 16.1 | 0.00 | 0.08 | 0.08 | 85 | 1012.4 |
| 20260507105016 | 21 | 5 | 3.2 | 12.9 | 0.00 | 0.08 | 0.08 | 85 | 1012.5 |
| 20260507104949 | 21 | 325 | 3.2 | 12.9 | 0.00 | 0.08 | 0.08 | 85 | 1012.5 |
| 20260507104835 | 21 | 325 | 4.8 | 12.9 | 0.00 | 0.08 | 0.08 | 85 | 1012.6 |
| 20260507104721 | 21 | 11 | 1.6 | 8.0 | 0.00 | 0.08 | 0.08 | 85 | 1012.6 |
| 20260507104647 | 21 | 294 | 0.0 | 8.0 | 0.00 | 0.08 | 0.08 | 85 | 1012.6 |
| 20260507104521 | 21 | 290 | 0.0 | 8.0 | 0.00 | 0.08 | 0.08 | 85 | 1012.6 |
| 20260507104426 | 21 | 290 | 0.0 | 8.0 | 0.00 | 0.08 | 0.08 | 85 | 1012.5 |
| 20260507104340 | 21 | 290 | 0.0 | 8.0 | 0.00 | 0.08 | 0.08 | 85 | 1012.5 |
| 20260507104226 | 21 | 355 | 0.0 | 8.0 | 0.00 | 0.08 | 0.08 | 85 | 1012.5 |
| 20260507104210 | 21 | 355 | 0.0 | 8.0 | 0.00 | 0.08 | 0.08 | 85 | 1012.4 |
| 20260507104027 | 21 | 355 | 1.6 | 8.0 | 0.00 | 0.08 | 0.08 | 85 | 1012.3 |
| 20260507103933 | 21 | 355 | 3.2 | 12.9 | 0.00 | 0.08 | 0.08 | 85 | 1012.2 |
| 20260507103820 | 21 | 355 | 3.2 | 12.9 | 0.00 | 0.08 | 0.08 | 85 | 1012.1 |
| 20260507103723 | 21 | 15 | 1.6 | 12.9 | 0.03 | 0.08 | 0.08 | 85 | 1012.1 |
| 20260507103635 | 21 | 349 | 1.6 | 12.9 | 0.03 | 0.08 | 0.08 | 85 | 1012.1 |
| 20260507103435 | 21 | 349 | 1.6 | 12.9 | 0.03 | 0.08 | 0.08 | 85 | 1012.1 |
| 20260507103322 | 21 | 355 | 1.6 | 12.9 | 0.03 | 0.08 | 0.08 | 85 | 1012.0 |
| 20260507103218 | 21 | 355 | 3.2 | 12.9 | 0.03 | 0.08 | 0.08 | 85 | 1012.0 |
| 20260507103131 | 21 | 355 | 3.2 | 12.9 | 0.03 | 0.08 | 0.08 | 85 | 1012.0 |
| 20260507103030 | 21 | 348 | 4.8 | 9.7 | 0.03 | 0.08 | 0.08 | 85 | 1012.0 |
| 20260507102916 | 22 | 355 | 3.2 | 9.7 | 0.03 | 0.08 | 0.08 | 85 | 1011.9 |
| 20260507102822 | 22 | 342 | 1.6 | 6.4 | 0.03 | 0.08 | 0.08 | 85 | 1011.9 |
| 20260507102726 | 22 | 340 | 1.6 | 6.4 | 0.03 | 0.08 | 0.08 | 85 | 1012.0 |
| 20260507102630 | 22 | 340 | 1.6 | 6.4 | 0.03 | 0.08 | 0.08 | 85 | 1011.9 |
| 20260507102532 | 22 | 5 | 1.6 | 6.4 | 0.03 | 0.08 | 0.08 | 85 | 1012.0 |
| 20260507102422 | 22 | 355 | 0.0 | 6.4 | 0.03 | 0.08 | 0.08 | 85 | 1011.9 |
| 20260507102328 | 22 | 360 | 0.0 | 6.4 | 0.03 | 0.08 | 0.08 | 85 | 1011.9 |
| 20260507102225 | 22 | 360 | 0.0 | 8.0 | 0.03 | 0.08 | 0.08 | 85 | 1011.8 |
| 20260507102137 | 22 | 360 | 0.0 | 8.0 | 0.03 | 0.08 | 0.08 | 85 | 1011.8 |
| 20260507102031 | 22 | 360 | 0.0 | 8.0 | 0.03 | 0.08 | 0.08 | 85 | 1011.8 |
| 20260507101922 | 22 | 5 | 1.6 | 8.0 | 0.03 | 0.08 | 0.08 | 85 | 1011.8 |
| 20260507101834 | 22 | 5 | 3.2 | 8.0 | 0.03 | 0.08 | 0.08 | 85 | 1011.8 |
| 20260507101720 | 22 | 5 | 1.6 | 8.0 | 0.03 | 0.08 | 0.08 | 85 | 1011.8 |
| 20260507101636 | 22 | 204 | 1.6 | 8.0 | 0.03 | 0.08 | 0.08 | 85 | 1011.9 |
| 20260507101539 | 22 | 360 | 1.6 | 8.0 | 0.03 | 0.08 | 0.08 | 85 | 1011.9 |
| 20260507101428 | 22 | 360 | 1.6 | 8.0 | 0.03 | 0.08 | 0.08 | 85 | 1011.9 |
| 20260507101334 | 22 | 17 | 0.0 | 4.8 | 0.03 | 0.08 | 0.08 | 85 | 1011.8 |
| 20260507101241 | 22 | 17 | 0.0 | 4.8 | 0.03 | 0.08 | 0.08 | 85 | 1011.7 |
| 20260507101143 | 22 | 17 | 1.6 | 4.8 | 0.03 | 0.08 | 0.08 | 85 | 1011.6 |
| 20260507101019 | 22 | 17 | 0.0 | 3.2 | 0.03 | 0.08 | 0.08 | 85 | 1011.5 |
| 20260507100925 | 22 | 17 | 0.0 | 3.2 | 0.03 | 0.08 | 0.08 | 85 | 1011.3 |
| 20260507100816 | 22 | 17 | 1.6 | 3.2 | 0.03 | 0.08 | 0.08 | 85 | 1011.3 |
| 20260507100718 | 22 | 17 | 1.6 | 3.2 | 0.03 | 0.08 | 0.08 | 85 | 1011.3 |
| 20260507100650 | 22 | 17 | 0.0 | 3.2 | 0.03 | 0.08 | 0.08 | 85 | 1011.3 |
| 20260507100524 | 22 | 17 | 0.0 | 3.2 | 0.03 | 0.08 | 0.08 | 85 | 1011.3 |
| 20260507100457 | 22 | 17 | 0.0 | 3.2 | 0.03 | 0.08 | 0.08 | 85 | 1011.2 |
| 20260507100323 | 22 | 17 | 0.0 | 3.2 | 0.03 | 0.08 | 0.08 | 85 | 1011.2 |
| 20260507100223 | 22 | 17 | 0.0 | 3.2 | 0.03 | 0.08 | 0.08 | 85 | 1011.2 |
| 20260507100134 | 22 | 17 | 0.0 | 3.2 | 0.03 | 0.08 | 0.08 | 85 | 1011.2 |
| 20260507100030 | 22 | 17 | 0.0 | 3.2 | 0.03 | 0.08 | 0.08 | 85 | 1011.2 |
| 20260507095937 | 22 | 17 | 0.0 | 3.2 | 0.03 | 0.08 | 0.08 | 85 | 1011.2 |
| 20260507095829 | 22 | 17 | 0.0 | 3.2 | 0.03 | 0.08 | 0.08 | 85 | 1011.2 |
| 20260507095725 | 22 | 17 | 0.0 | 3.2 | 0.03 | 0.08 | 0.08 | 85 | 1011.2 |
| 20260507095656 | 22 | 17 | 0.0 | 3.2 | 0.03 | 0.08 | 0.08 | 85 | 1011.2 |
| 20260507095537 | 22 | 17 | 1.6 | 3.2 | 0.03 | 0.08 | 0.08 | 85 | 1011.3 |
| 20260507095428 | 22 | 17 | 1.6 | 3.2 | 0.03 | 0.08 | 0.08 | 85 | 1011.3 |
| 20260507095335 | 22 | 17 | 1.6 | 3.2 | 0.03 | 0.08 | 0.08 | 85 | 1011.2 |
| 20260507095220 | 22 | 17 | 0.0 | 3.2 | 0.03 | 0.08 | 0.08 | 85 | 1011.2 |
| 20260507095144 | 22 | 17 | 0.0 | 3.2 | 0.03 | 0.08 | 0.08 | 85 | 1011.2 |
| 20260507095041 | 22 | 17 | 0.0 | 3.2 | 0.03 | 0.08 | 0.08 | 85 | 1011.3 |
| 20260507094928 | 22 | 17 | 0.0 | 4.8 | 0.03 | 0.08 | 0.08 | 85 | 1011.3 |
| 20260507094841 | 22 | 17 | 0.0 | 4.8 | 0.03 | 0.08 | 0.08 | 85 | 1011.2 |
| 20260507094728 | 22 | 17 | 0.0 | 4.8 | 0.03 | 0.08 | 0.08 | 85 | 1011.2 |
| 20260507094713 | 22 | 17 | 0.0 | 4.8 | 0.03 | 0.08 | 0.08 | 85 | 1011.3 |
| 20260507094527 | 22 | 17 | 0.0 | 4.8 | 0.03 | 0.08 | 0.08 | 85 | 1011.2 |
| 20260507094419 | 22 | 17 | 0.0 | 4.8 | 0.03 | 0.08 | 0.08 | 85 | 1011.3 |
| 20260507094326 | 22 | 17 | 0.0 | 4.8 | 0.03 | 0.08 | 0.08 | 85 | 1011.2 |
| 20260507094222 | 22 | 17 | 3.2 | 4.8 | 0.03 | 0.08 | 0.08 | 85 | 1011.1 |
| 20260507094155 | 22 | 17 | 3.2 | 4.8 | 0.03 | 0.08 | 0.08 | 85 | 1011.2 |
| 20260507094037 | 22 | 17 | 1.6 | 4.8 | 0.03 | 0.08 | 0.08 | 85 | 1011.1 |
| 20260507093944 | 23 | 19 | 0.0 | 3.2 | 0.03 | 0.08 | 0.08 | 85 | 1011.1 |
| 20260507093830 | 23 | 19 | 0.0 | 8.0 | 0.00 | 0.05 | 0.05 | 85 | 1011.1 |
| 20260507093720 | 23 | 19 | 0.0 | 8.0 | 0.00 | 0.05 | 0.05 | 85 | 1011.1 |
| 20260507093643 | 23 | 19 | 0.0 | 8.0 | 0.00 | 0.05 | 0.05 | 85 | 1011.1 |
| 20260507093546 | 23 | 19 | 0.0 | 8.0 | 0.00 | 0.05 | 0.05 | 85 | 1011.2 |
| 20260507093430 | 23 | 19 | 0.0 | 8.0 | 0.00 | 0.05 | 0.05 | 85 | 1011.1 |
| 20260507093403 | 23 | 19 | 0.0 | 8.0 | 0.00 | 0.05 | 0.05 | 85 | 1011.1 |
| 20260507093220 | 23 | 19 | 1.6 | 8.0 | 0.00 | 0.05 | 0.05 | 85 | 1011.0 |
| 20260507093127 | 23 | 19 | 1.6 | 8.0 | 0.00 | 0.05 | 0.05 | 85 | 1011.0 |
| 20260507093029 | 23 | 19 | 1.6 | 8.0 | 0.00 | 0.05 | 0.05 | 85 | 1011.0 |
| 20260507092916 | 23 | 349 | 0.0 | 6.4 | 0.00 | 0.05 | 0.05 | 85 | 1011.0 |
| 20260507092821 | 23 | 349 | 3.2 | 6.4 | 0.03 | 0.05 | 0.05 | 85 | 1011.0 |
| 20260507092718 | 23 | 349 | 1.6 | 6.4 | 0.03 | 0.05 | 0.05 | 85 | 1011.0 |
| 20260507092634 | 23 | 317 | 0.0 | 4.8 | 0.03 | 0.05 | 0.05 | 85 | 1011.0 |
| 20260507092528 | 23 | 291 | 0.0 | 4.8 | 0.03 | 0.05 | 0.05 | 85 | 1011.0 |
| 20260507092442 | 23 | 291 | 0.0 | 4.8 | 0.03 | 0.05 | 0.05 | 85 | 1011.0 |
| 20260507092327 | 23 | 291 | 0.0 | 4.8 | 0.03 | 0.05 | 0.05 | 85 | 1011.0 |
| 20260507092224 | 23 | 291 | 1.6 | 4.8 | 0.03 | 0.05 | 0.05 | 85 | 1011.0 |
| 20260507092135 | 23 | 291 | 1.6 | 4.8 | 0.03 | 0.05 | 0.05 | 85 | 1011.0 |
| 20260507092034 | 23 | 291 | 0.0 | 3.2 | 0.05 | 0.05 | 0.05 | 85 | 1011.0 |
| 20260507091925 | 23 | 291 | 0.0 | 4.8 | 0.05 | 0.05 | 0.05 | 85 | 1011.0 |
| 20260507091831 | 23 | 290 | 0.0 | 4.8 | 0.05 | 0.05 | 0.05 | 85 | 1011.0 |
| 20260507091720 | 23 | 290 | 0.0 | 4.8 | 0.05 | 0.05 | 0.05 | 85 | 1010.9 |
| 20260507091641 | 23 | 290 | 0.0 | 8.0 | 0.05 | 0.05 | 0.05 | 85 | 1010.9 |
| 20260507091556 | 23 | 290 | 0.0 | 8.0 | 0.05 | 0.05 | 0.05 | 85 | 1010.9 |
| 20260507091425 | 23 | 290 | 0.0 | 9.7 | 0.05 | 0.05 | 0.05 | 85 | 1010.9 |
| 20260507091339 | 23 | 290 | 0.0 | 9.7 | 0.05 | 0.05 | 0.05 | 85 | 1010.9 |
| 20260507091216 | 23 | 290 | 0.0 | 9.7 | 0.05 | 0.05 | 0.05 | 85 | 1010.9 |
| 20260507091127 | 23 | 290 | 1.6 | 9.7 | 0.05 | 0.05 | 0.05 | 85 | 1010.9 |
| 20260507091023 | 23 | 290 | 1.6 | 9.7 | 0.05 | 0.05 | 0.05 | 85 | 1010.9 |
| 20260507090929 | 23 | 284 | 1.6 | 9.7 | 0.05 | 0.05 | 0.05 | 85 | 1011.0 |
| 20260507090847 | 23 | 347 | 1.6 | 9.7 | 0.05 | 0.05 | 0.05 | 85 | 1011.0 |
| 20260507090811 | 23 | 347 | 1.6 | 9.7 | 0.05 | 0.05 | 0.05 | 85 | 1010.9 |
| 20260507090652 | 23 | 348 | 1.6 | 9.7 | 0.05 | 0.05 | 0.05 | 85 | 1010.9 |
| 20260507090527 | 23 | 348 | 1.6 | 9.7 | 0.05 | 0.05 | 0.05 | 85 | 1011.0 |
| 20260507090433 | 23 | 246 | 1.6 | 8.0 | 0.05 | 0.05 | 0.05 | 85 | 1011.0 |
| 20260507090319 | 23 | 355 | 3.2 | 8.0 | 0.05 | 0.05 | 0.05 | 85 | 1011.0 |
| 20260507090219 | 23 | 355 | 3.2 | 8.0 | 0.05 | 0.05 | 0.05 | 85 | 1011.0 |
| 20260507090131 | 24 | 355 | 1.6 | 4.8 | 0.05 | 0.05 | 0.05 | 85 | 1011.0 |
| 20260507090052 | 24 | 355 | 0.0 | 4.8 | 0.05 | 0.05 | 0.05 | 85 | 1011.0 |
| 20260507085937 | 24 | 5 | 0.0 | 4.8 | 0.05 | 0.05 | 0.05 | 85 | 1011.0 |
| 20260507085823 | 24 | 5 | 1.6 | 4.8 | 0.05 | 0.05 | 0.05 | 85 | 1010.9 |
| 20260507085719 | 24 | 5 | 1.6 | 4.8 | 0.05 | 0.05 | 0.05 | 85 | 1010.9 |
| 20260507085631 | 24 | 5 | 1.6 | 4.8 | 0.05 | 0.05 | 0.05 | 85 | 1010.9 |
| 20260507085538 | 24 | 5 | 0.0 | 8.0 | 0.05 | 0.05 | 0.05 | 85 | 1010.8 |
| 20260507085443 | 24 | 5 | 0.0 | 8.0 | 0.05 | 0.05 | 0.05 | 85 | 1010.8 |
| 20260507085336 | 24 | 5 | 0.0 | 8.0 | 0.05 | 0.05 | 0.05 | 85 | 1010.8 |
| 20260507085223 | 24 | 5 | 0.0 | 8.0 | 0.05 | 0.05 | 0.05 | 85 | 1010.8 |
| 20260507085137 | 24 | 5 | 1.6 | 8.0 | 0.05 | 0.05 | 0.05 | 85 | 1010.8 |
| 20260507085040 | 24 | 5 | 3.2 | 8.0 | 0.05 | 0.05 | 0.05 | 84 | 1010.7 |
| 20260507084930 | 24 | 9 | 3.2 | 8.0 | 0.05 | 0.05 | 0.05 | 84 | 1010.7 |
| 20260507084816 | 24 | 9 | 3.2 | 9.7 | 0.05 | 0.05 | 0.05 | 84 | 1010.8 |
| 20260507084744 | 24 | 9 | 4.8 | 9.7 | 0.05 | 0.05 | 0.05 | 84 | 1010.8 |
| 20260507084627 | 24 | 19 | 3.2 | 9.7 | 0.05 | 0.05 | 0.05 | 84 | 1010.8 |
| 20260507084521 | 24 | 9 | 0.0 | 9.7 | 0.05 | 0.05 | 0.05 | 85 | 1010.8 |
| 20260507084434 | 24 | 5 | 0.0 | 9.7 | 0.05 | 0.05 | 0.05 | 84 | 1010.8 |
| 20260507084325 | 24 | 5 | 1.6 | 9.7 | 0.05 | 0.05 | 0.05 | 84 | 1010.9 |
| 20260507084221 | 25 | 5 | 1.6 | 9.7 | 0.05 | 0.05 | 0.05 | 84 | 1010.9 |
| 20260507084132 | 25 | 5 | 3.2 | 9.7 | 0.05 | 0.05 | 0.05 | 84 | 1010.9 |
| 20260507084028 | 25 | 5 | 3.2 | 9.7 | 0.05 | 0.05 | 0.05 | 84 | 1010.9 |
| 20260507083933 | 25 | 340 | 1.6 | 8.0 | 0.05 | 0.05 | 0.05 | 84 | 1010.8 |
| 20260507083851 | 25 | 337 | 3.2 | 12.9 | 0.05 | 0.05 | 0.05 | 84 | 1010.8 |
| 20260507083746 | 25 | 337 | 3.2 | 12.9 | 0.05 | 0.05 | 0.05 | 84 | 1010.8 |
| 20260507083636 | 25 | 333 | 1.6 | 12.9 | 0.05 | 0.05 | 0.05 | 84 | 1010.8 |
| 20260507083538 | 25 | 333 | 1.6 | 12.9 | 0.05 | 0.05 | 0.05 | 85 | 1010.8 |
| 20260507083425 | 25 | 349 | 1.6 | 12.9 | 0.05 | 0.05 | 0.05 | 85 | 1010.8 |
| 20260507083351 | 25 | 349 | 0.0 | 12.9 | 0.05 | 0.05 | 0.05 | 85 | 1010.8 |
| 20260507083217 | 25 | 349 | 0.0 | 12.9 | 0.05 | 0.05 | 0.05 | 85 | 1010.7 |
| 20260507083144 | 25 | 349 | 1.6 | 12.9 | 0.05 | 0.05 | 0.05 | 85 | 1010.7 |
| 20260507083019 | 25 | 10 | 4.8 | 12.9 | 0.05 | 0.05 | 0.05 | 85 | 1010.7 |
| 20260507082933 | 25 | 17 | 3.2 | 9.7 | 0.03 | 0.03 | 0.03 | 85 | 1010.7 |
| 20260507082840 | 25 | 355 | 3.2 | 9.7 | 0.03 | 0.03 | 0.03 | 85 | 1010.7 |
| 20260507082716 | 25 | 5 | 3.2 | 8.0 | 0.03 | 0.03 | 0.03 | 85 | 1010.7 |
| 20260507082631 | 25 | 355 | 0.0 | 6.4 | 0.03 | 0.03 | 0.03 | 85 | 1010.7 |
| 20260507082525 | 25 | 305 | 0.0 | 4.8 | 0.03 | 0.03 | 0.03 | 85 | 1010.7 |
| 20260507082438 | 25 | 305 | 0.0 | 4.8 | 0.03 | 0.03 | 0.03 | 85 | 1010.7 |
| 20260507082327 | 26 | 305 | 1.6 | 4.8 | 0.03 | 0.03 | 0.03 | 85 | 1010.7 |
| 20260507082223 | 26 | 345 | 1.6 | 4.8 | 0.03 | 0.03 | 0.03 | 85 | 1010.7 |
| 20260507082129 | 26 | 120 | 0.0 | 3.2 | 0.00 | 0.00 | 0.00 | 85 | 1010.7 |
| 20260507082016 | 26 | 119 | 0.0 | 1.6 | 0.00 | 0.00 | 0.00 | 85 | 1010.6 |
| 20260507081921 | 26 | 119 | 0.0 | 1.6 | 0.00 | 0.00 | 0.00 | 85 | 1010.6 |
| 20260507081826 | 26 | 119 | 0.0 | 1.6 | 0.00 | 0.00 | 0.00 | 85 | 1010.6 |
| 20260507081719 | 26 | 119 | 0.0 | 1.6 | 0.00 | 0.00 | 0.00 | 85 | 1010.6 |
| 20260507081634 | 26 | 119 | 0.0 | 1.6 | 0.00 | 0.00 | 0.00 | 85 | 1010.6 |
| 20260507081536 | 26 | 119 | 0.0 | 1.6 | 0.00 | 0.00 | 0.00 | 85 | 1010.5 |
| 20260507081444 | 26 | 119 | 0.0 | 1.6 | 0.00 | 0.00 | 0.00 | 85 | 1010.6 |
| 20260507081337 | 26 | 119 | 0.0 | 4.8 | 0.00 | 0.00 | 0.00 | 85 | 1010.6 |
| 20260507081222 | 26 | 119 | 0.0 | 4.8 | 0.00 | 0.00 | 0.00 | 85 | 1010.5 |
| 20260507081200 | 26 | 119 | 0.0 | 4.8 | 0.00 | 0.00 | 0.00 | 85 | 1010.6 |
| 20260507081040 | 26 | 119 | 0.0 | 4.8 | 0.00 | 0.00 | 0.00 | 85 | 1010.6 |
| 20260507080947 | 26 | 119 | 0.0 | 4.8 | 0.00 | 0.00 | 0.00 | 85 | 1010.6 |
| 20260507080818 | 26 | 119 | 0.0 | 4.8 | 0.00 | 0.00 | 0.00 | 85 | 1010.6 |
| 20260507080740 | 26 | 119 | 0.0 | 4.8 | 0.00 | 0.00 | 0.00 | 85 | 1010.6 |
| 20260507080651 | 26 | 119 | 0.0 | 4.8 | 0.00 | 0.00 | 0.00 | 85 | 1010.6 |
| 20260507080526 | 26 | 119 | 0.0 | 4.8 | 0.00 | 0.00 | 0.00 | 85 | 1010.6 |
| 20260507080433 | 26 | 117 | 0.0 | 3.2 | 0.00 | 0.00 | 0.00 | 85 | 1010.6 |
| 20260507080320 | 26 | 117 | 0.0 | 3.2 | 0.00 | 0.00 | 0.00 | 85 | 1010.6 |
| 20260507080221 | 26 | 117 | 0.0 | 3.2 | 0.00 | 0.00 | 0.00 | 85 | 1010.7 |
| 20260507080133 | 26 | 117 | 0.0 | 3.2 | 0.00 | 0.00 | 0.00 | 85 | 1010.6 |
| 20260507080055 | 26 | 117 | 0.0 | 3.2 | 0.00 | 0.00 | 0.00 | 85 | 1010.6 |
| 20260507075942 | 26 | 117 | 0.0 | 3.2 | 0.00 | 0.00 | 0.00 | 85 | 1010.6 |
| 20260507075828 | 26 | 113 | 0.0 | 1.6 | 0.00 | 0.00 | 0.00 | 85 | 1010.6 |
| 20260507075723 | 26 | 112 | 0.0 | 1.6 | 0.00 | 0.00 | 0.00 | 85 | 1010.6 |
| 20260507075638 | 26 | 112 | 0.0 | 1.6 | 0.00 | 0.00 | 0.00 | 85 | 1010.6 |
| 20260507075540 | 26 | 112 | 0.0 | 1.6 | 0.00 | 0.00 | 0.00 | 85 | 1010.7 |
| 20260507075426 | 26 | 112 | 0.0 | 1.6 | 0.00 | 0.00 | 0.00 | 85 | 1010.7 |
| 20260507075333 | 26 | 112 | 0.0 | 1.6 | 0.00 | 0.00 | 0.00 | 85 | 1010.7 |
| 20260507075238 | 26 | 112 | 0.0 | 1.6 | 0.00 | 0.00 | 0.00 | 85 | 1010.7 |
| 20260507075140 | 26 | 112 | 0.0 | 1.6 | 0.00 | 0.00 | 0.00 | 85 | 1010.7 |
| 20260507075038 | 26 | 112 | 0.0 | 1.6 | 0.00 | 0.00 | 0.00 | 85 | 1010.7 |
| 20260507074930 | 26 | 112 | 0.0 | 1.6 | 0.00 | 0.00 | 0.00 | 85 | 1010.7 |
| 20260507074816 | 26 | 112 | 0.0 | 1.6 | 0.00 | 0.00 | 0.00 | 85 | 1010.7 |
| 20260507074742 | 26 | 112 | 0.0 | 3.2 | 0.00 | 0.00 | 0.00 | 85 | 1010.7 |
| 20260507074645 | 26 | 112 | 0.0 | 4.8 | 0.00 | 0.00 | 0.00 | 85 | 1010.6 |
| 20260507074519 | 26 | 112 | 0.0 | 4.8 | 0.00 | 0.00 | 0.00 | 85 | 1010.6 |
| 20260507074428 | 26 | 112 | 0.0 | 4.8 | 0.00 | 0.00 | 0.00 | 84 | 1010.6 |
| 20260507074341 | 26 | 112 | 0.0 | 4.8 | 0.00 | 0.00 | 0.00 | 84 | 1010.7 |
| 20260507074216 | 26 | 112 | 0.0 | 4.8 | 0.00 | 0.00 | 0.00 | 84 | 1010.6 |
| 20260507074127 | 26 | 112 | 0.0 | 4.8 | 0.00 | 0.00 | 0.00 | 84 | 1010.7 |
| 20260507074023 | 26 | 112 | 0.0 | 4.8 | 0.00 | 0.00 | 0.00 | 84 | 1010.7 |
| 20260507073936 | 26 | 112 | 0.0 | 4.8 | 0.00 | 0.00 | 0.00 | 84 | 1010.7 |
| 20260507073827 | 26 | 112 | 0.0 | 4.8 | 0.00 | 0.00 | 0.00 | 84 | 1010.8 |
| 20260507073722 | 26 | 109 | 0.0 | 0.0 | 0.00 | 0.00 | 0.00 | 84 | 1010.8 |
| 20260507073654 | 26 | 109 | 0.0 | 0.0 | 0.00 | 0.00 | 0.00 | 84 | 1010.8 |
| 20260507073555 | 26 | 109 | 0.0 | 1.6 | 0.00 | 0.00 | 0.00 | 84 | 1010.8 |
| 20260507073418 | 26 | 109 | 0.0 | 1.6 | 0.00 | 0.00 | 0.00 | 84 | 1010.8 |
| 20260507073324 | 26 | 109 | 0.0 | 1.6 | 0.00 | 0.00 | 0.00 | 84 | 1010.8 |
| 20260507073237 | 26 | 109 | 0.0 | 1.6 | 0.00 | 0.00 | 0.00 | 84 | 1010.8 |
| 20260507073132 | 26 | 109 | 0.0 | 1.6 | 0.00 | 0.00 | 0.00 | 84 | 1010.8 |
| 20260507073037 | 26 | 109 | 0.0 | 1.6 | 0.00 | 0.00 | 0.00 | 84 | 1010.8 |
| 20260507072949 | 26 | 109 | 0.0 | 1.6 | 0.00 | 0.00 | 0.00 | 84 | 1010.8 |
| 20260507072835 | 26 | 109 | 0.0 | 1.6 | 0.00 | 0.00 | 0.00 | 84 | 1010.8 |
| 20260507072741 | 26 | 109 | 0.0 | 1.6 | 0.00 | 0.00 | 0.00 | 84 | 1010.8 |
| 20260507072702 | 26 | 109 | 0.0 | 1.6 | 0.00 | 0.00 | 0.00 | 84 | 1010.7 |
| 20260507072545 | 26 | 109 | 0.0 | 1.6 | 0.00 | 0.00 | 0.00 | 84 | 1010.8 |
| 20260507072450 | 26 | 109 | 0.0 | 1.6 | 0.00 | 0.00 | 0.00 | 84 | 1010.8 |
| 20260507072319 | 26 | 109 | 0.0 | 1.6 | 0.00 | 0.00 | 0.00 | 84 | 1010.8 |
| 20260507072216 | 26 | 109 | 0.0 | 1.6 | 0.00 | 0.00 | 0.00 | 84 | 1010.9 |
| 20260507072127 | 26 | 109 | 0.0 | 1.6 | 0.00 | 0.00 | 0.00 | 84 | 1010.9 |
| 20260507072030 | 26 | 109 | 0.0 | 1.6 | 0.00 | 0.00 | 0.00 | 84 | 1010.9 |
| 20260507071935 | 26 | 109 | 0.0 | 1.6 | 0.00 | 0.00 | 0.00 | 84 | 1010.8 |
| 20260507071821 | 26 | 109 | 0.0 | 1.6 | 0.00 | 0.00 | 0.00 | 84 | 1010.8 |
| 20260507071720 | 26 | 109 | 0.0 | 1.6 | 0.00 | 0.00 | 0.00 | 84 | 1010.9 |
| 20260507071632 | 26 | 109 | 0.0 | 1.6 | 0.00 | 0.00 | 0.00 | 84 | 1010.9 |
| 20260507071527 | 26 | 109 | 0.0 | 1.6 | 0.00 | 0.00 | 0.00 | 84 | 1010.9 |
| 20260507071433 | 26 | 109 | 0.0 | 1.6 | 0.00 | 0.00 | 0.00 | 84 | 1010.9 |
| 20260507071347 | 26 | 109 | 0.0 | 1.6 | 0.00 | 0.00 | 0.00 | 84 | 1010.9 |
| 20260507071221 | 26 | 109 | 0.0 | 1.6 | 0.00 | 0.00 | 0.00 | 84 | 1010.9 |
| 20260507071135 | 26 | 109 | 0.0 | 1.6 | 0.00 | 0.00 | 0.00 | 84 | 1010.9 |
| 20260507071027 | 26 | 109 | 0.0 | 1.6 | 0.00 | 0.00 | 0.00 | 84 | 1010.9 |
| 20260507070940 | 26 | 109 | 0.0 | 1.6 | 0.00 | 0.00 | 0.00 | 84 | 1010.9 |
| 20260507070828 | 26 | 109 | 0.0 | 3.2 | 0.00 | 0.00 | 0.00 | 84 | 1010.9 |
| 20260507070724 | 26 | 109 | 0.0 | 3.2 | 0.00 | 0.00 | 0.00 | 84 | 1010.9 |
| 20260507070655 | 26 | 109 | 0.0 | 3.2 | 0.00 | 0.00 | 0.00 | 84 | 1010.9 |
| 20260507070600 | 26 | 109 | 0.0 | 3.2 | 0.00 | 0.00 | 0.00 | 84 | 1010.9 |
| 20260507070425 | 26 | 109 | 0.0 | 3.2 | 0.00 | 0.00 | 0.00 | 84 | 1010.9 |
| 20260507070351 | 26 | 109 | 0.0 | 3.2 | 0.00 | 0.00 | 0.00 | 84 | 1010.9 |
| 20260507070217 | 26 | 109 | 0.0 | 3.2 | 0.00 | 0.00 | 0.00 | 84 | 1011.0 |
| 20260507070200 | 26 | 109 | 0.0 | 3.2 | 0.00 | 0.00 | 0.00 | 84 | 1011.0 |
| 20260507070033 | 26 | 109 | 0.0 | 3.2 | 0.00 | 0.00 | 0.00 | 84 | 1010.9 |
| 20260507065946 | 26 | 109 | 0.0 | 3.2 | 0.00 | 0.00 | 0.00 | 84 | 1010.9 |
| 20260507065816 | 26 | 109 | 0.0 | 1.6 | 0.00 | 0.00 | 0.00 | 84 | 1011.0 |
| 20260507065722 | 26 | 109 | 0.0 | 1.6 | 0.00 | 0.00 | 0.00 | 84 | 1010.9 |
| 20260507065644 | 26 | 109 | 0.0 | 1.6 | 0.00 | 0.00 | 0.00 | 84 | 1011.0 |
| 20260507065519 | 26 | 109 | 0.0 | 1.6 | 0.00 | 0.00 | 0.00 | 83 | 1011.0 |
| 20260507065427 | 26 | 109 | 0.0 | 1.6 | 0.00 | 0.00 | 0.00 | 83 | 1011.0 |
| 20260507065316 | 26 | 109 | 0.0 | 1.6 | 0.00 | 0.00 | 0.00 | 83 | 1011.0 |
| 20260507065229 | 26 | 109 | 0.0 | 6.4 | 0.00 | 0.00 | 0.00 | 83 | 1011.0 |
| 20260507065144 | 26 | 109 | 0.0 | 6.4 | 0.00 | 0.00 | 0.00 | 83 | 1011.0 |
| 20260507065019 | 26 | 109 | 0.0 | 6.4 | 0.00 | 0.00 | 0.00 | 83 | 1011.0 |
| 20260507064932 | 26 | 109 | 0.0 | 6.4 | 0.00 | 0.00 | 0.00 | 83 | 1011.0 |
| 20260507064838 | 26 | 109 | 0.0 | 6.4 | 0.00 | 0.00 | 0.00 | 83 | 1011.0 |
| 20260507064717 | 26 | 109 | 0.0 | 6.4 | 0.00 | 0.00 | 0.00 | 83 | 1011.0 |
| 20260507064629 | 26 | 109 | 0.0 | 6.4 | 0.00 | 0.00 | 0.00 | 83 | 1011.0 |
| 20260507064524 | 26 | 109 | 0.0 | 6.4 | 0.00 | 0.00 | 0.00 | 83 | 1011.0 |
| 20260507064438 | 26 | 109 | 1.6 | 6.4 | 0.00 | 0.00 | 0.00 | 83 | 1011.0 |
| 20260507064322 | 26 | 109 | 1.6 | 6.4 | 0.00 | 0.00 | 0.00 | 83 | 1011.0 |
| 20260507064223 | 26 | 105 | 0.0 | 6.4 | 0.00 | 0.00 | 0.00 | 83 | 1011.0 |
| 20260507064134 | 26 | 16 | 0.0 | 1.6 | 0.00 | 0.00 | 0.00 | 83 | 1011.0 |
| 20260507064030 | 26 | 16 | 0.0 | 1.6 | 0.00 | 0.00 | 0.00 | 83 | 1011.1 |
| 20260507063915 | 26 | 16 | 0.0 | 1.6 | 0.00 | 0.00 | 0.00 | 83 | 1011.1 |
| 20260507063828 | 26 | 13 | 0.0 | 1.6 | 0.00 | 0.00 | 0.00 | 83 | 1011.1 |
| 20260507063715 | 26 | 13 | 0.0 | 1.6 | 0.00 | 0.00 | 0.00 | 83 | 1011.1 |
| 20260507063636 | 26 | 13 | 0.0 | 1.6 | 0.00 | 0.00 | 0.00 | 83 | 1011.1 |
| 20260507063537 | 26 | 11 | 0.0 | 1.6 | 0.00 | 0.00 | 0.00 | 83 | 1011.1 |
| 20260507063424 | 26 | 11 | 0.0 | 1.6 | 0.00 | 0.00 | 0.00 | 83 | 1011.1 |
| 20260507063331 | 26 | 11 | 0.0 | 1.6 | 0.00 | 0.00 | 0.00 | 83 | 1011.1 |
| 20260507063237 | 26 | 11 | 0.0 | 1.6 | 0.00 | 0.00 | 0.00 | 83 | 1011.2 |
| 20260507063159 | 26 | 11 | 0.0 | 1.6 | 0.00 | 0.00 | 0.00 | 83 | 1011.2 |
| 20260507063016 | 26 | 10 | 0.0 | 0.0 | 0.00 | 0.00 | 0.00 | 83 | 1011.1 |
| 20260507062929 | 26 | 10 | 0.0 | 0.0 | 0.00 | 0.00 | 0.00 | 83 | 1011.1 |
| 20260507062816 | 26 | 10 | 0.0 | 0.0 | 0.00 | 0.00 | 0.00 | 83 | 1011.1 |
| 20260507062723 | 26 | 10 | 0.0 | 0.0 | 0.00 | 0.00 | 0.00 | 83 | 1011.2 |
| 20260507062645 | 26 | 10 | 0.0 | 0.0 | 0.00 | 0.00 | 0.00 | 83 | 1011.1 |
| 20260507062524 | 26 | 10 | 0.0 | 0.0 | 0.00 | 0.00 | 0.00 | 83 | 1011.1 |
| 20260507062431 | 26 | 10 | 0.0 | 0.0 | 0.00 | 0.00 | 0.00 | 83 | 1011.1 |
| 20260507062319 | 26 | 10 | 0.0 | 0.0 | 0.00 | 0.00 | 0.00 | 83 | 1011.2 |